                ,  0.301,  0.397,  0.494,  0.590,  0.687,  0.784,  0.880,  0.977,  1.073,  1.170,  1.267,  1.363,  1.460,  1.556,  1.653,  1.749,  1.846,  1.943,  2.039,  2.136,  2.232,  2.329,  2.426,  2.522,  2.619,  2.715,  2.812,  2.909,  3.005,  3.102,  3.198,  3.295,  3.392,  3.488,  3.585,  3.681,  3.778,  3.875,  3.971,  4.068,  4.164,  4.261,  4.357,  4.454,  4.551,  4.647,  4.744,  4.840,  4.937,  5.034,  5.130,  5.227,  5.323,  5.420,  5.517,  5.613,  5.710,  5.806,  5.903,  6.000,  6.096,  6.193,  6.289,  6.386,  6.483,  6.579,  6.676,  6.772,  6.869,  6.965,  7.062,  7.159,  7.255,  7.352,  7.448,  7.545,  7.642,  7.738,  7.835,  7.931
2012/11/26 00:00,  999.0,  999.0,  999.0,   -0.1,   -0.3,    0.3,    0.0,  999.0,  999.0,   -0.1,    0.0,    0.1,    0.0,    0.1,   -0.0,    0.0,    0.2,    0.1,    0.1,    0.0,   -0.0,    0.1,   -0.0,    0.0,   -0.1,   -0.1,   -0.2,    0.1,    0.1,    0.1,   -0.1,   -0.0,    0.1,    0.1,    0.4,    0.2,    0.2,    0.4,    0.0,    0.1,   -0.1,   -0.2,   -0.1,   -0.2,    0.0,    0.2,    0.2,   -0.1,    0.1,    0.0,   -0.0,    0.1,   -0.4,   -0.3,   -0.1,    0.0,   -0.1,   -0.4,   -0.5,   -1.2,   -1.1,   -0.7,   -0.4,   -0.3,   -0.2,  999.0,  999.0,   -0.1,  999.0,  999.0,   -0.4,  999.0,  999.0,    0.0,  999.0,  999.0,  999.0,  999.0,  999.0,  999.0
2012/11/26 00:10,  999.0,  999.0,   -0.1,    0.1,   -0.2,   -0.1,    0.1,    0.1,  999.0,    0.2,    0.2,   -0.0,   -0.0,    0.4,    0.2,    0.1,    0.0,   -0.2,   -0.3,   -0.2,    0.0,    0.1,    0.0,    0.1,    0.1,   -0.0,   -0.0,    0.1,   -0.1,   -0.1,    0.2,   -0.2,   -0.1,  999.0,   -0.3,   -0.2,   -0.2,    0.0,   -0.2,   -0.0,   -0.3,   -0.1,    0.0,   -0.0,    0.2,   -0.1,    0.1,    0.1,    0.0,    0.2,   -0.2,   -0.2,   -0.0,   -0.1,    0.1,    0.0,   -0.1,   -0.2,   -0.2,   -0.6,   -0.0,   -0.8,   -0.2,   -0.1,   -0.0,   -0.1,    0.2,   -0.0,  999.0,  999.0,  999.0,  999.0,  999.0,  999.0,  999.0,  999.0,  999.0,  999.0,  999.0,  999.0
2012/11/26 00:20,  999.0,  999.0,  999.0,    0.0,   -0.2,   -0.0,    0.2,  999.0,  999.0,   -0.1,    0.0,   -0.0,    0.1,    0.4,    0.2,   -0.1,   -0.1,    0.0,    0.2,    0.2,    0.0,    0.1,    0.1,    0.0,   -0.1,   -0.2,    0.0,   -0.0,    0.1,    0.2,   -0.1,    0.0,   -0.0,    0.2,   -0.3,   -0.3,   -0.1,    0.2,    0.0,   -0.1,   -0.2,   -0.0,   -0.0,    0.1,   -0.1,   -0.1,   -0.1,    0.1,   -0.0,   -0.1,   -0.1,    0.1,   -0.1,   -0.1,    0.1,   -0.2,   -0.3,   -0.2,   -0.5,   -0.8,   -0.6,   -0.5,   -0.2,   -0.3,   -0.4,    0.0,   -0.5,  999.0,  999.0,  999.0,  999.0,  999.0,  999.0,  999.0,   -0.2,  999.0,  999.0,  999.0,  999.0,  999.0
2012/11/26 00:30,  999.0,  999.0,  999.0,   -0.1,   -0.3,   -0.2,  999.0,  999.0,  999.0,   -0.1,    0.1,    0.3,    0.3,    0.6,    0.2,    0.1,    0.1,    0.2,    0.1,    0.0,    0.1,   -0.0,   -0.0,   -0.1,   -0.0,   -0.1,    0.2,   -0.0,   -0.0,   -0.1,   -0.0,   -0.0,    0.0,    0.1,   -0.1,    0.1,    0.2,    0.0,    0.1,    0.1,   -0.1,   -0.1,    0.1,    0.1,    0.0,    0.2,    0.1,    0.1,   -0.0,   -0.1,   -0.0,    0.1,   -0.1,    0.1,   -0.1,   -0.1,   -0.2,   -0.0,   -0.1,   -0.4,   -0.1,    0.0,   -0.0,   -0.2,   -0.3,   -0.9,  999.0,  999.0,  999.0,  999.0,  999.0,  999.0,  999.0,   -0.3,  999.0,  999.0,  999.0,  999.0,  999.0,  999.0
2012/11/26 00:40,  999.0,  999.0,  999.0,    0.0,    0.0,    0.0,   -0.3,  999.0,  999.0,   -0.0,    0.4,    0.4,    0.2,    0.4,    0.4,    0.4,    0.3,    0.3,    0.1,    0.0,   -0.0,    0.1,    0.1,    0.1,    0.1,    0.1,    0.1,    0.2,    0.1,    0.1,   -0.2,   -0.1,    0.1,    0.1,   -0.0,    0.4,    0.1,   -0.1,   -0.1,   -0.0,   -0.2,   -0.1,    0.1,    0.1,    0.0,    0.2,   -0.0,    0.1,    0.0,   -0.1,    0.1,   -0.4,   -0.9,   -1.3,   -1.2,   -1.8,   -2.1,   -1.6,   -2.2,   -2.2,   -1.7,   -1.7,   -1.5,   -1.7,   -1.6,  999.0,  999.0,  999.0,  999.0,  999.0,  999.0,  999.0,  999.0,   -0.1,  999.0,  999.0,  999.0,  999.0,  999.0,  999.0
2012/11/26 00:50,  999.0,  999.0,  999.0,   -0.1,   -0.2,   -0.2,  999.0,  999.0,  999.0,   -0.1,   -0.1,   -0.0,   -0.0,    0.0,    0.4,    0.4,    0.6,    0.3,    0.1,    0.1,   -0.0,    0.2,    0.3,    0.4,    0.1,    0.0,   -0.0,    0.0,   -0.1,   -0.1,   -0.1,    0.2,   -0.2,    0.2,    0.1,   -0.3,   -0.1,    0.0,    0.2,    0.1,   -0.1,    0.0,    0.0,    0.0,    0.1,    0.2,    0.2,    0.2,   -0.1,   -0.1,   -0.3,   -0.1,   -0.6,   -1.3,   -1.2,   -1.8,   -1.3,   -0.9,   -0.9,   -1.7,   -1.3,   -0.9,   -0.3,   -0.2,   -0.2,   -0.2,    0.0,    0.1,  999.0,  999.0,  999.0,  999.0,  999.0,    0.3,  999.0,  999.0,  999.0,  999.0,  999.0,  999.0
2012/11/26 01:00,  999.0,  999.0,    0.3,   -0.0,   -0.0,   -0.1,   -0.2,  999.0,   -0.0,    0.0,    0.3,    0.1,   -0.0,    0.2,    0.3,    0.4,    0.9,    0.8,    0.2,   -0.1,    0.0,    0.1,    0.3,    0.1,    0.0,    0.1,    0.1,    0.1,   -0.2,   -0.0,   -0.1,   -0.2,   -0.2,   -0.1,    0.0,  999.0,   -0.2,    0.1,   -0.2,    0.0,   -0.2,   -0.1,   -0.2,   -0.2,   -0.0,   -0.1,    0.1,   -0.1,    0.1,    0.0,    0.0,   -0.1,   -0.3,   -0.3,   -0.3,   -0.2,   -0.7,   -0.0,   -0.0,   -0.4,   -0.1,   -0.2,   -0.0,   -0.1,   -0.3,   -0.4,  999.0,    0.0,  999.0,  999.0,  999.0,  999.0,  999.0,   -0.4,    0.0,  999.0,  999.0,  999.0,  999.0,  999.0
2012/11/26 01:10,  999.0,  999.0,    0.0,   -0.0,   -0.1,   -0.0,    0.1,  999.0,  999.0,    0.1,    0.2,    0.1,    0.0,    0.1,    0.4,    0.5,    0.6,    0.8,    0.2,    0.1,    0.1,    0.0,    0.1,    0.0,   -0.2,   -0.1,    0.1,    0.1,    0.1,    0.2,    0.0,    0.4,    0.2,   -0.0,   -0.2,    0.0,    0.1,   -0.2,   -0.0,   -0.2,   -0.1,    0.1,    0.2,   -0.0,    0.1,    0.3,    0.4,    0.2,   -0.1,    0.0,   -0.0,    0.1,   -0.1,   -0.1,   -0.3,   -0.2,    0.0,   -0.1,   -0.4,   -0.2,   -0.2,   -0.0,    0.1,   -0.1,   -0.1,   -0.2,   -0.3,  999.0,  999.0,  999.0,  999.0,  999.0,  999.0,    0.1,    0.1,  999.0,  999.0,  999.0,  999.0,  999.0
2012/11/26 01:20,  999.0,   -0.0,    0.1,    0.3,    0.2,    0.0,   -0.3,    0.1,  999.0,   -0.0,    0.1,    0.1,    0.0,    0.2,    0.8,    0.8,    0.9,    0.6,    0.2,    0.1,    0.1,    0.1,    0.0,    0.0,    0.1,   -0.0,   -0.0,   -0.0,   -0.1,   -0.1,   -0.1,    0.1,   -0.1,    0.0,    0.1,   -0.1,   -0.1,   -0.2,    0.0,   -0.0,   -0.1,   -0.2,    0.1,    0.2,    0.2,    0.4,    0.4,    0.2,   -0.0,   -0.1,    0.0,    0.0,   -0.1,    0.2,    0.2,    0.1,    0.0,   -0.2,   -0.0,   -0.3,   -0.2,   -0.4,   -0.4,   -0.1,    0.0,   -0.5,    0.1,  999.0,  999.0,  999.0,  999.0,  999.0,  999.0,  999.0,  999.0,  999.0,  999.0,  999.0,  999.0,  999.0
2012/11/26 01:30,  999.0,    0.1,   -0.0,   -1.1,    0.8,    0.9,   -0.2,  999.0,    0.1,    0.3,    0.1,    0.1,    0.3,    0.6,    0.8,    1.0,    1.4,    1.0,    0.2,   -0.0,   -0.2,    0.0,    0.1,    0.1,   -0.0,    0.2,    0.2,   -0.1,    0.4,   -0.2,    0.1,   -0.0,    0.0,    0.2,    0.1,    0.3,  999.0,  999.0,    0.4,   -0.1,   -0.1,   -0.2,    0.0,   -0.1,    0.1,    0.1,    0.1,    0.2,    0.1,    0.1,    0.1,   -0.0,   -0.2,   -0.1,    0.2,    0.1,   -0.5,   -2.7,   -3.4,   -4.7,   -3.2,   -7.5,  999.0,   -5.4,   -3.1,  999.0,  999.0,  999.0,  999.0,  999.0,  999.0,  999.0,  999.0,  999.0,  999.0,  999.0,  999.0,  999.0,  999.0,  999.0
2012/11/26 01:40,  999.0,    0.1,    0.1,    0.1,    0.2,   -0.0,    0.4,    0.1,   -0.2,    0.2,    0.2,   -0.0,   -0.1,    0.3,    0.5,    0.9,    1.7,    0.4,   -0.1,   -0.0,   -0.0,   -0.1,    0.0,   -0.1,   -0.2,   -0.0,   -0.1,   -0.0,    0.0,    0.1,   -0.1,   -0.1,   -0.0,    0.1,   -0.5,  999.0,  999.0,  999.0,   -0.7,    0.4,   -0.1,   -0.1,    0.0,   -0.1,   -0.0,   -0.1,   -0.5,   -0.3,   -1.0,  999.0,  999.0,   -1.3,  999.0,  999.0,   -1.2,  999.0,  999.0,  999.0,   -1.0,  999.0,   -0.6,   -0.6,   -0.5,  999.0,  999.0,   -0.4,  999.0,  999.0,  999.0,  999.0,  999.0,  999.0,  999.0,  999.0,  999.0,  999.0,  999.0,  999.0,  999.0,  999.0
2012/11/26 01:50,  999.0,  999.0,    0.6,    0.1,    0.0,   -0.1,    0.0,  999.0,  999.0,   -0.0,    0.1,    0.0,    0.0,    0.3,    0.2,   -0.3,   -0.8,   -2.2,   -1.6,   -0.5,   -0.2,   -0.1,   -0.2,   -0.0,    0.0,   -0.1,   -0.2,   -0.2,    0.1,   -0.0,   -0.0,    0.2,   -0.0,    0.4,  999.0,   -0.4,  999.0,  999.0,   -0.1,   -0.2,   -0.4,   -0.3,   -0.0,   -0.0,   -0.2,    0.0,   -0.1,   -0.0,   -0.0,    0.1,  999.0,  999.0,  999.0,   -1.5,    0.5,   -1.2,   -2.1,   -0.3,  999.0,  999.0,   -1.2,   -0.7,   -0.1,  999.0,  999.0,    0.1,  999.0,  999.0,  999.0,  999.0,  999.0,  999.0,  999.0,   -0.3,  999.0,  999.0,  999.0,  999.0,  999.0,  999.0
2012/11/26 02:00,  999.0,  999.0,   -0.0,    0.0,  999.0,   -0.9,  999.0,  999.0,  999.0,  999.0,    0.0,   -0.1,    0.0,    0.3,    0.5,   -0.3,   -1.4,    0.4,   -1.0,   -0.1,   -0.1,   -0.1,   -0.2,   -0.0,    0.0,   -0.1,   -0.1,    0.0,   -0.3,    0.0,   -0.2,    0.0,    0.3,   -0.1,   -0.1,   -0.4,   -0.2,   -0.0,   -0.3,   -0.1,   -0.3,  999.0,   -0.2,   -0.1,  999.0,    3.7,  999.0,  999.0,  999.0,   11.1,  999.0,   16.6,   15.2,   15.5,   15.8,   16.3,   11.4,   13.3,   15.4,  999.0,  999.0,  999.0,  999.0,  999.0,  999.0,  999.0,  999.0,  999.0,  999.0,  999.0,  999.0,  999.0,  999.0,  999.0,  999.0,  999.0,  999.0,  999.0,  999.0,  999.0
2012/11/26 02:10,  999.0,  999.0,  999.0,  999.0,    0.2,    0.0,  999.0,  999.0,  999.0,   -0.1,    1.3,   -0.0,   -0.0,   -0.3,    1.9,   -0.6,   -0.5,  999.0,   -0.5,   -0.1,   -0.0,   -0.2,    0.1,   -0.1,   -0.1,   -0.3,   -0.1,    0.2,   -0.0,   -0.1,   -0.0,    0.0,   -0.1,   -0.0,   -0.0,   -0.1,   -0.3,  999.0,   -0.1,   -0.2,   -0.3,   -0.2,   -0.0,  999.0,  999.0,  999.0,  999.0,  999.0,   17.4,   17.6,   17.9,   17.9,   17.9,   18.5,   19.0,   19.4,   19.8,   22.6,  999.0,  999.0,  999.0,  999.0,  999.0,  999.0,  999.0,  999.0,  999.0,  999.0,  999.0,  999.0,  999.0,  999.0,  999.0,  999.0,  999.0,  999.0,  999.0,  999.0,  999.0,  999.0
2012/11/26 02:20,  999.0,  999.0,  999.0,   -0.1,    0.2,  999.0,  999.0,  999.0,  999.0,   -0.1,    0.0,    0.1,   -0.0,   -0.1,    0.4,    1.9,    1.4,  999.0,   -0.3,   -0.0,   -0.0,    0.2,   -0.1,   -0.0,   -0.1,    0.0,   -0.4,   -0.1,   -0.0,    0.0,    0.1,   -0.1,    0.0,   -0.0,   -0.2,   -0.4,  999.0,    0.1,   -0.0,   -0.2,   -0.3,    0.1,   -0.1,  999.0,  999.0,  999.0,   17.1,   17.8,   18.0,   18.2,   17.7,   18.0,   17.9,   18.2,   19.1,   20.1,   20.9,   22.9,   24.2,   25.5,   28.9,   30.6,   33.8,  999.0,  999.0,  999.0,  999.0,  999.0,  999.0,  999.0,  999.0,  999.0,  999.0,    0.3,  999.0,  999.0,  999.0,  999.0,  999.0,  999.0
2012/11/26 02:30,  999.0,  999.0,  999.0,   -0.0,   -0.7,   -0.0,  999.0,  999.0,  999.0,    0.0,    0.3,    0.2,    0.2,    0.5,    0.7,    1.9,    2.5,    2.3,  999.0,    0.4,    0.1,    0.4,    0.6,    0.3,   -0.1,    0.1,    0.1,    0.1,    0.0,    0.1,   -0.0,   -0.0,    0.5,    0.1,   -0.1,   -0.1,   -0.5,   -0.4,   -0.1,    0.0,   -0.4,   -0.5,    0.0,    0.1,    1.0,  999.0,   15.6,   16.1,   18.0,   18.6,   18.2,   18.6,   19.2,   19.8,   20.3,   20.7,   21.0,   22.5,   23.7,   26.2,   29.1,   31.2,   33.0,   34.2,   34.6,   35.4,   35.6,   36.0,  999.0,  999.0,  999.0,   35.9,  999.0,  999.0,  999.0,  999.0,  999.0,  999.0,  999.0,  999.0
2012/11/26 02:40,  999.0,  999.0,  999.0,   -0.1,   -0.6,   -0.7,  999.0,  999.0,  999.0,   -0.0,    0.0,   -0.3,    0.3,    0.9,    1.9,    2.4,    3.1,    3.3,    0.8,    0.5,    0.3,    0.9,    1.3,    0.8,    0.2,    0.1,    0.3,    0.2,    0.1,    0.2,   -0.0,    0.0,   -0.2,  999.0,   -0.1,    0.5,    0.7,  999.0,  999.0,   -0.1,   -0.2,   -0.1,    0.2,   -0.1,    0.1,  999.0,  999.0,  999.0,   17.2,   18.1,   17.6,   17.8,   18.2,   19.0,   19.8,   20.4,   21.5,   23.1,   23.5,   25.4,  999.0,   31.9,   33.1,  999.0,  999.0,  999.0,  999.0,  999.0,  999.0,  999.0,  999.0,  999.0,  999.0,  999.0,  999.0,  999.0,  999.0,  999.0,  999.0,  999.0
2012/11/26 02:50,  999.0,  999.0,   -0.4,   -0.1,  999.0,   -0.3,  999.0,  999.0,  999.0,  999.0,  999.0,    3.8,    5.7,    6.2,    6.6,  999.0,  999.0,    1.6,    0.4,    0.4,    0.3,    0.7,    1.0,    0.2,    0.2,    0.1,   -0.0,   -0.3,   -0.2,   -0.1,   -0.1,    0.0,   -0.0,   -0.0,    0.3,    0.2,    0.0,  999.0,    0.1,   -0.0,   -0.3,    0.1,    0.1,   -0.0,   -0.2,  999.0,  999.0,   14.9,  999.0,   17.4,   17.7,   17.8,   17.7,   18.9,   20.4,   21.2,   21.8,   22.4,   23.2,   26.5,   31.6,   34.5,  999.0,   35.4,   34.5,  999.0,  999.0,   33.6,  999.0,  999.0,  999.0,  999.0,  999.0,  999.0,  999.0,  999.0,  999.0,  999.0,  999.0,  999.0
2012/11/26 03:00,  999.0,  999.0,   -0.1,   -0.3,   -0.1,  999.0,  999.0,    5.5,  999.0,  999.0,    7.6,    8.0,    8.3,    9.2,  999.0,  999.0,  999.0,    0.4,    0.3,    0.2,    0.2,    0.4,    0.8,    0.4,    0.2,   -0.0,   -0.0,    0.0,    0.2,   -0.1,   -0.4,   -0.0,    0.1,   -0.1,    0.2,    0.2,    0.2,    0.1,    0.2,   -0.1,   -0.5,   -0.4,    0.2,    0.5,    0.2,    0.2,  999.0,  999.0,  999.0,   15.9,   16.3,   16.7,   18.5,   19.4,   19.6,   19.9,   20.1,   21.7,   24.7,   28.6,   31.6,   33.0,   34.4,   33.7,   33.5,   33.9,   33.9,   33.8,   32.2,   33.3,   34.1,   34.3,  999.0,  999.0,  999.0,  999.0,  999.0,  999.0,  999.0,  999.0
2012/11/26 03:10,  999.0,  999.0,  999.0,    4.2,  999.0,  999.0,  999.0,  999.0,    6.3,    7.3,    8.0,    8.6,    8.2,    9.2,    8.9,  999.0,  999.0,  999.0,  999.0,    0.2,    0.3,    0.6,    0.2,    0.1,    0.1,    0.1,   -0.0,    0.3,   -0.1,   -0.1,    0.0,   -0.3,    0.2,    0.2,    0.0,   -0.3,   -0.0,    0.3,    0.2,   -0.3,   -0.9,   -0.7,   -0.1,  999.0,  999.0,   17.0,   16.8,   17.1,   17.0,   17.8,   18.6,   18.8,   18.5,   17.9,   18.0,   18.5,   20.5,   24.3,   26.2,   28.4,   31.1,   33.9,   33.3,   33.5,   34.2,   35.1,   35.1,   34.3,   32.7,   32.6,   34.2,   35.7,  999.0,  999.0,  999.0,  999.0,  999.0,  999.0,  999.0,  999.0
2012/11/26 03:20,  999.0,  999.0,   -0.2,  999.0,  999.0,  999.0,  999.0,  999.0,  999.0,    5.3,    6.6,    6.8,    7.6,    8.3,    4.7,    0.8,    0.1,    0.2,    0.0,   -0.0,    0.0,    0.1,    0.1,    0.0,    0.2,   -0.0,    0.1,    0.0,   -0.1,   -0.2,   -0.2,   -0.1,   -0.1,    0.1,   -0.1,    0.0,    0.1,   -0.1,  999.0,  999.0,  999.0,  999.0,  999.0,   15.7,   17.1,   18.5,   18.9,   18.5,   18.4,   18.2,   17.9,   17.7,   17.7,   19.5,   20.9,   22.2,   23.4,   24.5,   27.3,   29.9,   31.9,   33.1,   33.4,   33.1,   33.6,   33.3,   33.2,   32.7,   33.7,   34.2,   35.3,   36.9,   37.8,   38.9,   39.3,   40.6,   41.5,  999.0,  999.0,  999.0
2012/11/26 03:30,  999.0,  999.0,  999.0,    4.4,    4.6,    6.1,    5.3,    5.1,  999.0,    5.8,    7.7,    8.1,    8.7,  999.0,    0.6,    0.2,   -0.1,   -0.0,    0.1,    0.1,   -0.1,    0.0,    0.3,    0.3,    0.0,   -0.0,    0.2,    0.1,   -0.0,    0.2,    0.1,    0.1,   -0.2,  999.0,    0.1,  999.0,  999.0,   17.2,  999.0,   16.6,   15.9,   15.6,   16.4,   16.6,   16.3,   16.4,   16.5,   16.7,   17.4,   18.3,   19.3,   20.5,   21.5,   21.4,   22.8,   24.8,   27.5,   30.1,   31.7,   32.9,   33.3,   33.5,   33.3,   32.6,   32.0,   32.0,   32.4,   33.2,   33.1,   33.7,   35.7,  999.0,  999.0,  999.0,  999.0,  999.0,  999.0,  999.0,  999.0,  999.0
2012/11/26 03:40,  999.0,  999.0,  999.0,  999.0,  999.0,  999.0,  999.0,  999.0,    3.3,    5.7,    7.4,    8.9,    8.7,    0.2,    0.1,   -0.1,   -0.2,   -0.1,   -0.0,   -0.1,    0.0,   -0.1,    0.2,   -0.2,   -0.2,   -0.2,   -0.1,    0.0,    0.1,   -0.3,    0.0,  999.0,  999.0,  999.0,   15.4,   15.9,   15.7,   15.9,   18.3,   19.1,   17.8,   16.6,   16.1,   16.5,   16.4,   16.3,   17.3,   18.1,   18.6,   19.4,   19.8,   21.1,   23.5,  999.0,   28.6,   31.4,   31.9,   32.9,   33.7,   33.0,   33.6,   33.2,   32.6,  999.0,  999.0,  999.0,   34.2,  999.0,  999.0,  999.0,  999.0,  999.0,  999.0,  999.0,  999.0,  999.0,  999.0,  999.0,  999.0,  999.0
2012/11/26 03:50,  999.0,  999.0,    5.8,  999.0,    4.2,    6.6,    6.2,    5.3,    4.8,    7.7,    9.8,    9.7,  999.0,   -0.1,   -0.1,   -0.0,   -0.2,   -0.2,   -0.1,    0.0,    0.0,    0.0,   -0.0,   -0.5,   -0.1,    0.1,   -0.1,    0.1,  999.0,  999.0,   11.3,   12.5,   13.7,   14.6,   15.8,   15.7,   15.8,   15.2,   15.2,   14.7,   14.2,   14.6,   15.1,   16.3,   17.9,   18.7,   18.5,   18.1,   18.3,   18.8,   20.5,   23.3,   27.5,   30.2,   31.5,   33.1,   32.8,  999.0,  999.0,  999.0,  999.0,  999.0,  999.0,  999.0,  999.0,  999.0,  999.0,  999.0,  999.0,  999.0,  999.0,  999.0,  999.0,  999.0,  999.0,  999.0,  999.0,  999.0,  999.0,  999.0
2012/11/26 04:00,  999.0,  999.0,  999.0,    3.6,    5.3,    5.7,    5.8,    5.7,    7.1,    9.1,  999.0,  999.0,  999.0,    0.4,    0.4,    0.6,    0.5,    0.7,    0.4,   -0.1,   -0.0,    0.2,  999.0,    0.2,    0.1,    0.0,   -0.1,  999.0,  999.0,   10.4,   12.6,   12.7,   13.0,   12.4,   13.8,   12.8,   12.6,   12.2,   13.8,   15.3,   15.0,   15.6,   15.7,   16.5,   17.6,   18.3,   18.1,   18.4,   19.8,   22.5,   26.5,   30.0,   31.4,   31.6,   32.1,   32.9,   33.3,   33.0,   33.1,  999.0,   30.9,   29.5,  999.0,  999.0,  999.0,  999.0,  999.0,  999.0,  999.0,  999.0,  999.0,  999.0,  999.0,  999.0,  999.0,  999.0,  999.0,  999.0,  999.0,  999.0
2012/11/26 04:10,  999.0,    0.4,    0.7,  999.0,  999.0,    3.8,    3.9,    3.5,    5.6,    8.1,    9.5,  999.0,  999.0,    6.7,    8.4,    8.5,    9.6,    8.5,    7.2,    9.1,    7.2,   14.4,  999.0,  999.0,   10.3,   11.4,  999.0,  999.0,  999.0,   10.8,   11.1,   12.1,  999.0,  999.0,  999.0,  999.0,  999.0,  999.0,  999.0,  999.0,   15.5,   17.0,   18.0,   18.5,   18.8,   18.5,   18.2,   19.8,   23.6,   27.0,   30.3,   32.6,   33.5,   34.3,   34.8,   35.2,   35.1,   35.2,   34.5,   33.3,   33.5,   32.7,   31.1,   32.4,  999.0,  999.0,  999.0,  999.0,  999.0,  999.0,  999.0,  999.0,  999.0,  999.0,  999.0,  999.0,  999.0,  999.0,  999.0,  999.0
2012/11/26 04:20,  999.0,    2.1,    1.9,    7.4,    7.5,    3.7,    4.5,    3.8,  999.0,    3.4,    1.9,    4.1,    4.7,    5.3,    6.6,    5.6,    1.2,    0.3,    0.7,    1.9,    4.9,    8.1,    6.3,    6.7,  999.0,    8.9,  999.0,  999.0,  999.0,  999.0,   12.7,   13.1,   13.8,   12.8,  999.0,  999.0,  999.0,  999.0,   18.8,   17.5,  999.0,   15.9,   17.0,   16.9,   17.8,   18.7,   19.2,   20.1,   24.0,   27.7,   30.1,   33.1,   34.2,  999.0,   18.1,   12.4,   12.4,   11.6,   -0.2,    0.0,   -0.1,    0.1,   -0.3,   -0.0,    0.1,  999.0,  999.0,   -0.1,  999.0,    0.1,  999.0,   -0.2,  999.0,  999.0,  999.0,  999.0,  999.0,  999.0,  999.0,  999.0
2012/11/26 04:30,  999.0,    1.0,  999.0,  999.0,  999.0,    4.3,    4.2,    4.4,    3.1,  999.0,    8.3,    9.3,   10.3,   11.4,   11.5,   12.0,  999.0,  999.0,    3.5,    0.4,    0.5,   -0.1,   -0.1,   -0.2,   -0.1,    0.0,   -0.3,   -0.3,    0.2,    0.3,  999.0,   11.5,   13.7,  999.0,   14.7,  999.0,  999.0,  999.0,   18.6,   17.3,   17.6,   17.8,   17.7,  999.0,   15.8,  999.0,  999.0,  999.0,   16.2,  999.0,   -0.3,   -0.4,   -0.4,   -0.2,   -0.1,    0.1,   -0.1,   -0.2,   -0.1,   -0.1,   -0.3,    0.1,   -0.0,   -0.1,    0.0,   -0.2,  999.0,  999.0,  999.0,    0.2,  999.0,   -0.0,  999.0,  999.0,  999.0,  999.0,  999.0,  999.0,  999.0,  999.0
2012/11/26 04:40,  999.0,  999.0,    1.3,    2.1,    2.6,    3.2,    1.6,    3.9,  999.0,  999.0,    7.7,    9.9,   11.5,   12.3,   12.3,   11.6,   10.3,    8.4,    9.3,   10.8,   11.9,   12.8,  999.0,  999.0,  999.0,  999.0,   -0.3,   -0.3,   -0.1,   -0.7,   -0.1,  999.0,  999.0,   15.0,  999.0,  999.0,   15.3,   15.4,   16.2,   15.5,   15.0,   16.3,   18.0,   18.2,   18.9,   21.8,   24.3,   30.9,   33.2,   34.8,   34.0,   35.2,   35.4,   35.4,   36.7,   37.4,  999.0,  999.0,  999.0,  999.0,  999.0,  999.0,  999.0,  999.0,   -0.3,   -0.1,  999.0,  999.0,    0.1,    0.2,    0.1,   -0.2,    0.0,    0.3,  999.0,  999.0,  999.0,  999.0,  999.0,  999.0
2012/11/26 04:50,  999.0,  999.0,  999.0,    1.8,    3.2,    4.2,  999.0,  999.0,  999.0,    5.6,    6.4,    7.9,   11.3,   13.2,   13.3,   12.6,   10.7,    9.8,    9.4,   10.8,   11.9,   13.0,   13.5,   13.5,  999.0,   15.1,   16.1,   14.7,   14.9,   14.4,   14.4,   16.5,   16.5,   16.3,   17.0,   17.6,   17.8,   17.3,   15.2,   14.2,   14.9,   15.6,   17.7,   20.1,   22.5,   29.8,   31.8,   32.9,   35.7,   35.5,   34.8,   34.8,   34.9,   34.0,  999.0,  999.0,  999.0,  999.0,  999.0,  999.0,  999.0,  999.0,  999.0,  999.0,   -0.4,  999.0,  999.0,  999.0,    0.1,  999.0,   -0.0,  999.0,  999.0,  999.0,  999.0,  999.0,  999.0,  999.0,  999.0,  999.0
2012/11/26 05:00,  999.0,    1.8,    1.0,    1.4,    3.1,    4.0,    3.3,    3.7,    3.9,    4.8,    6.0,    7.4,    9.1,   11.3,   11.0,    9.6,    9.5,    9.5,   10.6,   12.9,   14.6,   14.5,  999.0,   14.0,   13.3,   15.0,   14.9,   15.5,   15.9,   15.2,   16.0,   16.8,   17.3,   17.5,   17.3,   17.4,   16.7,   17.3,   15.2,   14.7,   17.5,   19.6,   22.9,   26.6,   29.6,   32.3,   34.7,   37.2,   37.4,   35.4,   35.4,   34.2,   34.0,   34.8,  999.0,  999.0,  999.0,  999.0,  999.0,  999.0,  999.0,  999.0,  999.0,  999.0,  999.0,  999.0,  999.0,  999.0,  999.0,  999.0,  999.0,  999.0,  999.0,  999.0,  999.0,  999.0,  999.0,  999.0,  999.0,  999.0
2012/11/26 05:10,  999.0,    0.4,    0.3,  999.0,  999.0,    1.6,  999.0,  999.0,  999.0,    3.6,    4.6,    5.5,    5.6,    6.3,    3.2,    2.9,    0.6,    2.2,    3.4,    2.2,    4.1,    6.3,    3.4,    4.0,   10.6,   17.3,   15.8,   15.4,   16.5,   17.0,   17.3,   17.1,   17.0,   16.3,   16.2,   16.7,   17.3,   17.7,   19.5,   21.9,   24.6,   28.8,   32.3,   35.2,   36.9,   38.6,  999.0,  999.0,  999.0,    8.7,    8.5,    0.0,    0.1,   -0.2,    0.0,   -0.2,   -0.1,   -0.0,   -0.0,   -0.1,    0.1,   -0.1,   -0.6,   -0.5,   -0.2,  999.0,  999.0,  999.0,  999.0,  999.0,  999.0,  999.0,  999.0,  999.0,  999.0,  999.0,  999.0,  999.0,  999.0,  999.0
2012/11/26 05:20,  999.0,  999.0,    0.1,   -0.0,    2.3,    1.3,   -0.0,  999.0,  999.0,    2.7,    4.3,    4.2,    4.0,    5.7,    8.9,   10.4,    5.6,    4.1,    4.2,    4.2,    4.3,    5.0,    5.3,    5.1,    6.8,    8.4,    8.2,  999.0,   12.2,   12.3,   13.2,   14.2,   14.8,   15.9,   17.3,   18.2,   18.9,   21.1,   23.8,   27.1,   30.7,   31.6,   35.9,   37.1,   28.5,   24.9,   23.8,   24.8,   22.5,   24.5,   25.6,   28.8,   24.1,   24.5,   24.7,   21.8,   26.5,   12.4,  999.0,   -0.5,    0.0,  999.0,  999.0,   -0.2,  999.0,    8.3,  999.0,  999.0,  999.0,  999.0,  999.0,  999.0,  999.0,  999.0,  999.0,  999.0,  999.0,  999.0,  999.0,  999.0
2012/11/26 05:30,  999.0,   -0.1,    0.1,   -0.7,  999.0,   -0.3,   -0.4,  999.0,    0.7,  999.0,    4.2,    3.9,    2.9,    1.4,    1.5,    1.1,    0.3,   -0.3,   -0.2,   -0.3,  999.0,  999.0,  999.0,  999.0,  999.0,  999.0,  999.0,   11.6,   11.5,   12.5,   13.8,   14.5,   15.7,   16.7,   17.9,   19.4,   20.2,  999.0,  999.0,  999.0,  999.0,  999.0,  999.0,  999.0,  999.0,   -0.1,    0.3,   -0.1,    0.1,   -0.0,   -0.3,    0.0,   -0.2,   -0.2,   -0.3,   -0.3,   -0.2,   -0.2,   -0.4,   -0.4,   -0.3,   -0.3,   -0.7,   -0.5,   -0.6,    0.1,  999.0,   -0.4,  999.0,  999.0,  999.0,  999.0,  999.0,  999.0,  999.0,  999.0,  999.0,  999.0,  999.0,  999.0
2012/11/26 05:40,  999.0,    0.1,   -0.5,   -1.8,  999.0,    0.8,  999.0,  999.0,  999.0,    3.1,    3.9,    4.2,    3.4,    5.5,  999.0,  999.0,   -0.2,   -0.2,   -0.2,   -0.5,   -0.2,    0.2,    0.1,    0.1,    0.1,  999.0,  999.0,  999.0,  999.0,  999.0,   14.9,   16.0,   17.4,   18.3,   19.9,   20.8,  999.0,  999.0,  999.0,  999.0,  999.0,  999.0,  999.0,  999.0,   -0.1,   -0.0,   -0.1,    0.2,    0.2,   -0.0,   -0.1,   -0.1,    0.1,    0.0,   -0.0,    0.1,   -0.2,   -0.2,   -0.1,   -0.0,    0.2,   -0.0,   -0.1,   -0.2,   -0.0,   -0.1,  999.0,    0.2,    0.0,  999.0,  999.0,    0.2,  999.0,  999.0,  999.0,  999.0,  999.0,  999.0,  999.0,  999.0
2012/11/26 05:50,  999.0,  999.0,  999.0,    3.8,    1.1,    2.5,  999.0,  999.0,    1.8,    2.6,    4.3,    4.8,    5.6,    6.2,    5.5,    0.2,   -0.0,   -0.2,   -0.1,   -0.3,   -0.2,    0.0,    0.1,   -0.4,   -0.4,   -0.4,   -0.4,  999.0,  999.0,  999.0,   13.8,   13.3,   15.3,   16.6,  999.0,  999.0,  999.0,  999.0,  999.0,  999.0,  999.0,  999.0,   -0.2,    0.2,    0.3,   -0.0,   -0.2,   -0.1,    0.0,   -0.1,   -0.0,   -0.2,    0.0,   -0.2,    0.2,   -0.0,    0.1,    0.2,    0.0,    0.2,    0.1,    0.1,   -0.2,   -0.1,    0.0,    0.2,  999.0,  999.0,   -0.4,  999.0,  999.0,  999.0,  999.0,  999.0,  999.0,  999.0,  999.0,  999.0,  999.0,  999.0
2012/11/26 06:00,  999.0,  999.0,  999.0,  999.0,   -1.2,   -0.9,   -1.4,    0.1,    0.4,    3.4,    4.5,    5.2,    5.9,    5.9,    5.5,    5.6,    6.8,    7.7,    7.6,    4.6,    7.3,    7.2,    6.4,    4.1,    8.5,    5.8,  999.0,    7.7,  999.0,   13.1,  999.0,   13.3,  999.0,   20.6,   21.6,   24.1,  999.0,  999.0,   30.9,   35.4,   35.6,   23.0,   22.0,   22.3,   16.7,   17.6,  999.0,  999.0,   -0.0,    0.2,    0.1,    0.1,    0.3,    0.1,    0.1,    0.0,   -0.2,   -0.0,   -0.0,    0.1,    0.0,   -0.1,    0.2,   -0.2,    0.1,    0.1,  999.0,  999.0,  999.0,  999.0,  999.0,  999.0,  999.0,  999.0,  999.0,  999.0,  999.0,  999.0,  999.0,  999.0
2012/11/26 06:10,  999.0,   -0.2,   -1.0,   -0.9,   -0.7,   -0.2,  999.0,  999.0,    0.0,    2.4,    3.6,    3.6,    3.7,    2.0,  999.0,  999.0,  999.0,    0.2,    1.2,    2.2,   -0.1,    4.5,  999.0,  999.0,  999.0,  999.0,  999.0,  999.0,  999.0,   14.8,   17.5,   18.8,   20.7,   22.6,   23.4,   25.1,   27.5,   30.6,   33.4,   36.2,   35.7,   35.1,   33.7,   30.9,   32.4,  999.0,  999.0,  999.0,  999.0,    0.4,    0.0,    0.1,   -0.0,   -0.0,   -0.1,    0.1,    0.2,   -0.0,   -0.0,    0.2,    0.1,   -0.1,   -0.2,    0.0,   -0.4,    0.0,  999.0,   -0.2,  999.0,  999.0,  999.0,  999.0,  999.0,  999.0,  999.0,  999.0,  999.0,  999.0,  999.0,  999.0
2012/11/26 06:20,  999.0,  999.0,  999.0,  999.0,  999.0,  999.0,  999.0,   -2.5,  999.0,   -1.3,    1.5,    1.1,    2.6,    1.9,    1.3,    3.1,  999.0,    4.4,    5.1,   -0.7,   -0.2,   -0.2,    3.9,    6.5,    7.2,   -0.4,   15.4,   14.7,   14.0,   15.4,   16.4,   18.7,   20.5,   23.1,   25.0,   27.8,   31.0,   34.5,   35.2,   34.2,   33.4,   33.4,   32.4,   33.2,   34.1,  999.0,  999.0,  999.0,    0.1,   -0.0,    0.1,    0.1,   -0.1,    0.1,   -0.0,   -0.1,   -0.1,   -0.0,    0.5,    0.0,   -0.2,   -0.1,   -0.3,    0.1,    0.2,   -0.3,  999.0,  999.0,  999.0,  999.0,  999.0,  999.0,  999.0,  999.0,  999.0,  999.0,  999.0,  999.0,  999.0,  999.0
2012/11/26 06:30,  999.0,  999.0,  999.0,  999.0,  999.0,   -2.9,   -3.9,  999.0,   -2.7,   -0.5,    0.6,    1.1,    2.0,    1.5,    2.6,    4.6,    5.5,    5.4,    6.6,  999.0,   10.0,  999.0,    3.9,    0.1,    5.3,    5.2,    5.4,    6.2,   12.4,   11.9,   13.4,  999.0,  999.0,  999.0,  999.0,  999.0,  999.0,  999.0,  999.0,  999.0,  999.0,   -1.4,   -0.6,   -0.1,    0.0,   -0.1,   -0.1,    0.0,   -0.1,    0.1,    0.1,   -0.4,   -0.5,   -0.3,   -0.1,   -0.2,   -0.5,   -0.4,   -0.2,    0.6,   -0.2,    0.0,    0.0,   -0.2,   -0.3,    0.0,   -0.0,  999.0,   -0.2,  999.0,  999.0,  999.0,  999.0,  999.0,  999.0,  999.0,  999.0,  999.0,  999.0,  999.0
2012/11/26 06:40,  999.0,   -0.0,    0.6,    0.2,   -0.2,   -0.5,    0.3,  999.0,    3.1,    2.1,    1.5,    2.6,    3.5,    3.9,    4.8,    6.1,    6.2,    6.8,    8.3,    9.1,    9.8,    9.2,    9.2,    9.3,    9.1,    9.2,    9.7,   10.7,   10.7,   11.6,   12.7,   14.8,  999.0,  999.0,  999.0,  999.0,  999.0,  999.0,  999.0,  999.0,  999.0,   -0.7,   -0.5,   -0.1,   -0.0,   -0.2,   -0.3,   -0.2,   -0.6,   -0.4,   -0.2,   -0.2,   -0.2,   -0.3,   -0.2,   -0.4,   -0.4,    0.0,   -0.1,    0.1,    0.1,   -0.3,   -0.3,   -0.4,   -0.5,   -0.1,   -0.1,  999.0,    0.1,  999.0,  999.0,  999.0,  999.0,  999.0,  999.0,  999.0,  999.0,  999.0,  999.0,  999.0
2012/11/26 06:50,  999.0,  999.0,  999.0,  999.0,  999.0,  999.0,  999.0,  999.0,    4.6,    6.4,    6.8,    6.9,    7.4,    7.4,    6.8,    7.4,    8.4,    9.2,    9.8,   10.1,    9.8,    9.9,    9.7,    9.8,    9.8,   10.4,   12.0,   10.3,   11.1,   12.4,   14.7,   17.7,   20.4,   22.6,   25.9,   27.8,   29.8,   31.7,  999.0,  999.0,  999.0,  999.0,  999.0,  999.0,  999.0,  999.0,   -0.4,   -0.2,   -0.5,   -0.4,   -0.5,   -0.8,   -1.3,   -1.2,   -0.8,   -0.9,   -0.4,   -0.7,   -0.6,   -0.6,    0.1,   -0.1,   -0.1,   -0.1,    0.5,    0.1,  999.0,  999.0,   -0.7,  999.0,  999.0,  999.0,  999.0,  999.0,  999.0,  999.0,  999.0,  999.0,  999.0,  999.0
2012/11/26 07:00,  999.0,   -0.2,   -0.4,   -0.2,   -1.4,   -1.4,  999.0,  999.0,    6.4,    7.3,    7.4,    7.5,    7.3,    7.5,    7.4,    6.6,    7.7,    8.3,    9.2,    9.9,   10.2,    9.9,    9.7,    9.8,   10.4,   10.3,    9.8,   10.2,   12.2,   14.4,   16.1,   18.7,   21.4,   24.0,   26.9,   29.2,   29.2,   31.1,   31.9,   31.6,   33.5,   33.4,  999.0,  999.0,  999.0,  999.0,  999.0,  999.0,    0.1,   -0.3,   -0.2,    0.2,   -0.1,   -0.1,   -0.0,   -0.0,   -0.2,   -0.2,   -0.1,   -0.3,    0.1,   -0.1,    0.4,   -0.1,    0.1,    0.1,   -0.0,    0.0,   -0.2,  999.0,  999.0,  999.0,  999.0,  999.0,  999.0,  999.0,  999.0,  999.0,  999.0,  999.0
2012/11/26 07:10,  999.0,    1.8,  999.0,    2.2,    3.7,    4.9,  999.0,    8.2,    7.6,    7.2,    7.9,    7.9,    8.0,    6.7,    7.2,    7.6,    8.4,    9.7,   10.2,   10.2,    9.9,    8.7,    9.5,   10.5,   12.4,   11.2,   10.6,   11.4,   13.2,   16.2,   17.3,   18.1,   21.4,   24.8,   27.3,   28.3,   28.7,   28.8,   29.6,   30.3,   31.3,   30.9,   30.3,   31.2,   33.4,   33.9,   33.6,   32.2,   29.9,   30.0,  999.0,  999.0,  999.0,  999.0,  999.0,  999.0,   -0.0,   -0.3,   -0.0,   -0.0,    0.0,    0.2,    0.3,    0.0,    0.0,    0.2,  999.0,  999.0,  999.0,  999.0,  999.0,  999.0,  999.0,  999.0,  999.0,  999.0,  999.0,  999.0,  999.0,  999.0
2012/11/26 07:20,  999.0,    0.4,  999.0,  999.0,  999.0,  999.0,  999.0,    6.0,    6.8,    7.6,    8.3,    8.3,    8.5,    9.0,    9.3,    9.7,   10.3,    9.4,  999.0,   10.8,   11.0,   11.6,   11.0,   12.4,    9.8,    9.1,    8.8,    9.9,   12.8,   15.3,   17.6,   20.1,   22.5,   25.4,   27.4,   27.3,   27.5,   27.9,   28.6,   29.0,   29.0,   29.2,   29.6,   30.8,   31.5,   32.5,   33.1,   31.8,   31.2,   30.8,   30.5,   29.5,   28.3,   29.5,   31.2,  999.0,  999.0,  999.0,  999.0,  999.0,  999.0,  999.0,   -0.4,   -0.4,   -0.2,    0.1,  999.0,  999.0,  999.0,  999.0,  999.0,  999.0,  999.0,  999.0,  999.0,  999.0,  999.0,  999.0,  999.0,  999.0
2012/11/26 07:30,  999.0,    0.1,   -0.2,   -0.1,   -0.7,    0.3,   -1.5,  999.0,  999.0,  999.0,   -2.0,   -0.5,   -0.1,    3.3,    4.2,    4.5,    4.8,    2.0,    1.6,    3.1,    3.0,    4.0,    4.3,    3.2,    2.2,    0.7,  999.0,  999.0,  999.0,   12.1,   14.7,   17.8,   21.5,   24.1,   24.7,   25.6,   26.8,   28.1,   28.1,   28.4,   28.4,   29.4,   30.1,   30.9,   32.1,   33.5,   33.0,   31.5,   30.8,   29.9,   29.2,   29.4,   29.0,   28.2,   27.3,  999.0,  999.0,  999.0,  999.0,  999.0,  999.0,   -0.5,   -0.1,   -0.0,  999.0,   -0.0,  999.0,  999.0,  999.0,  999.0,  999.0,  999.0,  999.0,  999.0,  999.0,  999.0,  999.0,  999.0,  999.0,  999.0
2012/11/26 07:40,  999.0,    0.8,    0.3,   -0.1,   -0.2,   -2.4,   -1.8,   -0.7,  999.0,   -0.9,   -0.7,   -0.3,   -0.1,   -0.3,   -0.3,   -0.5,    3.2,    2.5,   -1.3,   -0.6,   -0.4,   -0.5,  999.0,   -1.2,    4.4,    0.4,    8.2,    8.4,   11.3,   13.2,   15.4,   18.3,   21.4,   23.0,   23.9,   25.5,   27.0,   27.9,   28.7,   29.2,   29.2,   28.7,   29.2,   30.3,   31.3,   32.7,   33.9,   33.6,   33.1,   33.2,   32.3,   30.6,   29.7,   28.9,   28.0,  999.0,  999.0,  999.0,  999.0,  999.0,  999.0,  999.0,  999.0,   -0.1,   -0.2,  999.0,  999.0,  999.0,  999.0,  999.0,  999.0,  999.0,  999.0,  999.0,  999.0,  999.0,  999.0,  999.0,  999.0,  999.0
2012/11/26 07:50,  999.0,    0.1,    0.1,   -0.0,    0.2,   -0.1,   -0.1,  999.0,    8.5,    9.9,    6.2,    5.8,    3.2,    2.9,    4.8,    6.1,    5.8,    4.0,    4.0,    2.8,    8.7,    3.3,    6.3,    9.7,    9.6,    8.5,    8.4,    9.3,   12.0,   14.2,   16.3,   19.0,   20.9,   22.5,   24.6,   26.3,   27.1,   27.5,   27.8,   28.4,   29.3,   30.0,   30.3,   31.1,   32.1,   32.6,   34.2,   34.7,   33.7,  999.0,  999.0,  999.0,  999.0,  999.0,   27.7,   26.9,   30.3,  999.0,  999.0,  999.0,  999.0,   31.7,  999.0,  999.0,  999.0,  999.0,  999.0,  999.0,  999.0,  999.0,  999.0,  999.0,  999.0,  999.0,  999.0,  999.0,  999.0,  999.0,  999.0,  999.0
2012/11/26 08:00,  999.0,  999.0,   -0.3,    3.4,    3.1,    3.7,  999.0,  999.0,    3.6,    7.8,   10.2,    9.8,   12.9,   12.1,   11.4,   11.0,    9.4,   13.0,   12.9,   14.0,   12.3,   10.8,    9.4,    9.9,    8.5,    7.8,    8.0,   10.2,   12.7,   15.3,   17.3,   18.5,   20.2,   22.1,   24.1,   25.3,   26.0,   27.2,   28.1,   28.6,   29.0,   29.0,   30.0,   31.2,   31.6,   33.2,   34.0,   32.2,   30.6,   30.6,   31.5,   31.6,  999.0,   28.6,   29.1,   18.5,   19.0,   20.2,  999.0,  999.0,  999.0,  999.0,  999.0,    0.0,  999.0,    0.3,  999.0,  999.0,  999.0,  999.0,  999.0,  999.0,  999.0,  999.0,  999.0,  999.0,  999.0,  999.0,  999.0,  999.0
2012/11/26 08:10,  999.0,  999.0,  999.0,  999.0,  999.0,   -1.8,   -0.7,   -0.2,    3.2,    6.5,    8.8,    9.5,    8.9,   10.1,    9.6,    8.8,    8.3,    7.2,    7.3,    7.5,    7.1,    7.4,    8.5,    8.5,    8.6,    9.0,    8.8,   10.4,   12.8,   15.9,   19.2,   20.1,   21.0,   23.2,   24.8,   26.4,   27.3,   27.9,   27.9,   28.7,   29.9,   30.8,   32.0,   32.9,   33.3,   34.2,   33.2,  999.0,  999.0,  999.0,  999.0,  999.0,  999.0,    0.9,    0.2,   -0.0,   -0.1,   -0.2,   -0.4,   -0.1,   -0.2,   -0.3,    0.0,    0.2,   -0.3,   -0.1,   -0.1,    0.1,    0.2,  999.0,  999.0,  999.0,  999.0,  999.0,  999.0,  999.0,  999.0,  999.0,  999.0,  999.0
2012/11/26 08:20,  999.0,  999.0,  999.0,    0.4,    0.2,  999.0,  999.0,  999.0,  999.0,   13.4,   13.7,   13.2,   15.1,   13.7,   13.4,   12.8,   12.0,   12.3,   11.3,   10.3,    9.6,    9.7,    9.9,   10.2,   10.2,   10.3,   11.8,   13.6,   16.9,   18.6,   20.2,   21.4,   24.0,   25.1,   26.1,   26.7,   27.3,   27.5,   29.2,   30.3,   32.1,   33.1,   33.6,   32.6,  999.0,  999.0,  999.0,  999.0,  999.0,  999.0,  999.0,    0.1,    0.3,   -0.3,   -0.0,    0.0,    0.0,    0.2,   -0.0,   -0.2,   -0.2,   -0.1,    0.0,   -0.3,   -0.2,   -0.1,    0.2,   -0.1,    0.3,  999.0,  999.0,  999.0,  999.0,  999.0,  999.0,  999.0,  999.0,  999.0,  999.0,  999.0
2012/11/26 08:30,  999.0,    0.1,    0.2,   -0.2,  999.0,  999.0,   12.8,  999.0,  999.0,  999.0,   16.0,   14.1,   14.9,   15.3,   14.7,    9.4,    7.4,    8.5,    7.8,    7.8,    7.1,    9.9,   10.0,    9.8,   10.3,   11.6,   13.1,   15.0,   16.5,   18.0,   20.0,   20.6,   22.4,   23.3,   24.4,   25.1,   25.6,   28.1,   29.4,   31.4,   31.4,  999.0,  999.0,  999.0,  999.0,  999.0,  999.0,  999.0,  999.0,  999.0,  999.0,  999.0,    0.1,   -0.2,    0.2,    0.1,   -0.2,    0.1,   -0.1,    0.0,    0.1,    0.0,   -0.1,    0.0,    0.1,    0.1,   -0.1,    0.0,   -0.3,  999.0,  999.0,  999.0,  999.0,  999.0,  999.0,  999.0,  999.0,  999.0,  999.0,  999.0
2012/11/26 08:40,  999.0,  999.0,  999.0,  999.0,  999.0,  999.0,  999.0,  999.0,    9.9,   12.1,   13.4,   13.3,   13.4,   13.7,   13.2,   12.6,   12.5,   12.4,   12.9,   12.7,   11.5,   10.2,    9.3,   10.1,   10.3,   11.4,   12.8,   15.0,   16.6,   19.3,   20.6,   21.7,   22.5,   23.5,   23.9,   25.3,   26.2,   27.6,   28.7,   29.7,   30.8,   30.8,  999.0,  999.0,  999.0,  999.0,  999.0,    0.3,    0.2,    0.5,   -0.2,   -0.1,  999.0,   -0.3,    0.1,   -0.0,    0.2,    0.3,   -0.3,   -0.2,    0.1,   -0.1,   -0.0,   -0.0,    0.0,    0.1,    0.4,  999.0,    0.1,  999.0,  999.0,  999.0,  999.0,  999.0,  999.0,  999.0,  999.0,  999.0,  999.0,  999.0
2012/11/26 08:50,  999.0,  999.0,  999.0,  999.0,  999.0,  999.0,  999.0,  999.0,  999.0,   12.5,   13.4,   13.7,   10.7,   13.9,   13.8,   14.1,   13.5,   13.2,   12.9,   12.5,   10.9,   10.1,    9.3,    9.4,    9.7,   12.0,   14.1,   16.1,   19.4,   21.1,   22.4,   23.7,   25.0,   25.1,   26.7,   28.0,   29.6,   31.2,   32.2,   32.8,   33.1,   33.5,  999.0,  999.0,  999.0,  999.0,  999.0,  999.0,  999.0,  999.0,  999.0,  999.0,  999.0,    0.7,    0.2,    0.4,    0.3,   -0.0,    0.0,    0.1,    0.0,    0.2,    0.3,   -0.0,   -0.1,    0.1,   -0.0,    0.1,   -0.1,  999.0,  999.0,  999.0,  999.0,  999.0,  999.0,  999.0,  999.0,  999.0,  999.0,  999.0
2012/11/26 09:00,  999.0,  999.0,  999.0,  999.0,  999.0,  999.0,  999.0,  999.0,  999.0,  999.0,  999.0,   11.7,   11.9,   14.0,   13.9,   13.9,   13.3,   13.5,   11.8,   11.9,   11.0,   10.3,    9.9,   10.6,   11.8,   14.4,   16.2,   16.7,   17.6,   19.1,   20.7,   22.3,   24.7,   27.1,   27.5,   29.7,   31.2,   32.8,   33.2,  999.0,  999.0,  999.0,  999.0,  999.0,  999.0,  999.0,  999.0,  999.0,  999.0,  999.0,  999.0,  999.0,   -0.5,  999.0,  999.0,   -0.4,   -0.5,   -0.1,   -0.4,   -0.1,    0.1,    0.0,    0.0,    0.3,    0.0,   -0.0,  999.0,    0.0,   -0.0,  999.0,  999.0,  999.0,  999.0,  999.0,  999.0,  999.0,  999.0,  999.0,  999.0,  999.0
2012/11/26 09:10,  999.0,  999.0,   -0.0,  999.0,   -0.7,  999.0,  999.0,  999.0,  999.0,  999.0,   12.7,   12.6,   12.1,   13.2,   12.2,    9.9,   11.9,  999.0,   12.2,   11.0,   10.0,    9.5,   10.3,   10.9,   12.7,   14.4,   16.4,   17.9,   19.2,   21.0,   22.9,   24.3,   25.5,   28.6,   29.1,   29.7,   30.4,   30.3,  999.0,  999.0,  999.0,  999.0,  999.0,  999.0,  999.0,   -0.1,   -0.3,   -0.4,   -0.7,  999.0,  999.0,    0.1,   -0.1,    0.2,   -0.2,    0.3,    0.0,    0.1,    0.2,    0.1,    0.0,    0.2,   -0.1,   -0.1,   -0.0,    0.4,  999.0,  999.0,  999.0,  999.0,  999.0,  999.0,  999.0,  999.0,  999.0,  999.0,  999.0,  999.0,  999.0,  999.0
2012/11/26 09:20,  999.0,  999.0,    0.1,   -0.0,  999.0,  999.0,  999.0,  999.0,  999.0,   -0.1,  999.0,    3.5,    4.4,    3.4,    4.5,    4.6,    4.3,    4.0,    7.6,    0.3,    4.6,    8.6,    8.5,    9.4,   10.5,   12.0,   14.0,   16.3,   19.2,   21.5,   23.5,   25.0,   27.7,   30.1,   30.7,   30.7,  999.0,   28.5,  999.0,  999.0,  999.0,  999.0,  999.0,  999.0,    0.0,   -0.0,    0.2,    0.2,    0.2,  999.0,   -0.1,  999.0,    0.1,   -0.3,   -0.3,   -0.0,   -0.2,    0.3,    0.0,    0.3,    0.2,    0.0,   -0.1,   -0.1,    0.2,  999.0,  999.0,    0.4,  999.0,  999.0,  999.0,  999.0,  999.0,  999.0,  999.0,  999.0,  999.0,  999.0,  999.0,  999.0
2012/11/26 09:30,  999.0,  999.0,  999.0,   -0.0,  999.0,   -0.1,  999.0,  999.0,  999.0,   -0.2,   -0.2,   -0.2,   -0.2,   -0.2,   -0.5,  999.0,   12.0,   11.7,   14.8,   13.2,   10.4,    9.2,    8.9,    8.7,    9.9,   12.7,   15.1,   18.1,   20.8,   22.7,   24.9,   27.7,   29.4,   31.0,   30.9,   30.7,   29.4,   29.3,   30.4,  999.0,  999.0,  999.0,  999.0,    0.4,    0.2,   -0.2,   -0.0,    0.3,  999.0,  999.0,  999.0,  999.0,   -0.2,    4.6,    3.8,   -0.5,   -0.3,   -0.4,   -0.6,   -0.3,   -0.4,   -0.2,   -0.4,  999.0,  999.0,   -0.3,  999.0,  999.0,  999.0,  999.0,  999.0,  999.0,  999.0,  999.0,  999.0,  999.0,  999.0,  999.0,  999.0,  999.0
2012/11/26 09:40,  999.0,  999.0,  999.0,  999.0,    1.1,    1.7,    5.5,    7.0,    7.5,    5.8,   11.1,    9.6,   12.5,    9.1,    9.8,   11.9,   10.8,   10.7,   11.2,   11.5,   11.2,   10.3,   10.0,   10.3,   10.5,   13.0,   15.5,   18.1,   20.2,   21.5,   23.2,   26.2,   27.9,   30.0,   29.5,   30.0,   30.2,   30.0,   28.9,   27.6,   26.8,   26.3,   27.1,   27.5,   26.1,   24.6,   24.6,   25.4,   27.0,   28.1,  999.0,  999.0,  999.0,  999.0,  999.0,  999.0,  999.0,  999.0,   -0.1,    0.1,    0.0,   -0.3,   -0.3,    0.1,   -0.1,   -0.2,  999.0,  999.0,  999.0,  999.0,  999.0,  999.0,  999.0,  999.0,  999.0,  999.0,  999.0,  999.0,  999.0,  999.0
2012/11/26 09:50,  999.0,  999.0,  999.0,    2.3,  999.0,  999.0,    4.9,    7.0,    8.5,   10.5,   10.1,    9.3,    9.6,    8.4,    7.1,    7.6,    8.3,    8.7,    9.0,   10.5,   11.0,   10.7,   10.2,   10.3,   10.8,   12.5,   13.4,   16.1,   18.9,   20.3,   22.3,   24.0,   26.6,   28.4,   29.0,   29.7,   29.1,   28.6,   28.5,   27.3,   27.2,   27.7,   27.2,   16.4,   15.8,   24.2,  999.0,  999.0,  999.0,  999.0,  999.0,  999.0,  999.0,   -0.8,   -0.9,    0.1,    0.5,   -0.3,    0.0,   -0.8,   -0.7,   -0.3,   -0.3,   -0.0,    0.3,   -0.3,  999.0,  999.0,  999.0,  999.0,  999.0,  999.0,  999.0,  999.0,  999.0,  999.0,  999.0,  999.0,  999.0,  999.0
2012/11/26 10:00,  999.0,  999.0,  999.0,  999.0,  999.0,  999.0,  999.0,  999.0,    9.4,   12.1,   17.3,   16.5,   14.8,   15.6,   16.7,   17.3,   15.8,   14.5,   14.1,   15.2,   15.7,   14.3,   14.1,   14.3,   15.2,   16.8,   17.4,   20.2,   22.3,   24.6,   26.0,  999.0,   27.7,  999.0,  999.0,  999.0,  999.0,  999.0,  999.0,  999.0,  999.0,  999.0,  999.0,  999.0,  999.0,  999.0,  999.0,  999.0,  999.0,  999.0,  999.0,  999.0,  999.0,  999.0,  999.0,  999.0,  999.0,  999.0,  999.0,  999.0,   -0.3,    0.4,   -0.3,   -0.1,   -0.1,    0.0,  999.0,  999.0,   -0.1,  999.0,  999.0,  999.0,  999.0,  999.0,  999.0,  999.0,  999.0,  999.0,  999.0,  999.0
2012/11/26 10:10,  999.0,  999.0,  999.0,  999.0,  999.0,  999.0,  999.0,  999.0,  999.0,   11.9,   13.0,   14.4,   15.9,  999.0,  999.0,   20.1,   17.2,   16.7,   17.6,   17.5,   11.7,   11.8,   11.3,    5.6,   -0.1,    3.7,    0.1,    0.3,    0.1,    0.4,    4.8,    6.3,    0.6,    0.5,  999.0,  999.0,  999.0,  999.0,    0.2,    0.2,   -0.3,   -0.1,    0.8,    0.1,   -0.3,   -0.5,  999.0,   -0.4,   -0.4,   -0.8,  999.0,   -0.1,   -0.1,   -0.1,    0.3,    0.1,    0.0,   -0.0,   -0.0,    0.0,    0.3,    0.0,    0.2,   -0.0,   -0.4,   -0.1,    0.3,    0.2,   -0.0,  999.0,  999.0,  999.0,  999.0,  999.0,  999.0,  999.0,  999.0,  999.0,  999.0,  999.0
2012/11/26 10:20,  999.0,  999.0,  999.0,  999.0,  999.0,  999.0,  999.0,  999.0,  999.0,   12.1,   12.9,   14.3,   15.9,  999.0,  999.0,  999.0,    0.1,    0.1,   -0.0,   -0.1,   -0.1,   -0.0,   -0.2,   -0.1,   -0.2,   -0.0,   -0.1,   -0.0,    0.2,    0.2,    0.2,    0.3,    0.3,    0.1,   -0.1,    0.2,  999.0,    0.8,    0.2,    0.2,   -0.1,   -0.1,    0.2,    0.2,    0.0,   -0.2,    0.1,   -0.1,    0.3,    0.1,    0.0,   -0.0,   -0.1,    0.1,    0.1,    0.1,    0.0,   -0.1,   -0.1,   -0.0,   -0.1,   -0.0,    0.0,   -0.0,    0.1,    0.2,    0.1,    0.1,    0.3,  999.0,  999.0,  999.0,  999.0,  999.0,  999.0,  999.0,  999.0,  999.0,  999.0,  999.0
2012/11/26 10:30,  999.0,  999.0,    0.1,   -0.1,  999.0,  999.0,    5.0,  999.0,    5.4,    3.1,    4.7,    0.1,   -0.1,   -0.0,   -0.1,   -0.2,    3.9,    1.3,    1.7,    1.6,    1.5,    1.3,    1.1,    3.1,    3.4,    1.8,    7.3,    7.6,    8.1,    8.0,    4.9,    0.6,    0.2,    0.2,  999.0,    0.8,  999.0,  999.0,    0.3,    0.0,    3.0,    2.9,    5.4,    2.1,   -0.0,    3.0,    0.2,   -0.1,   -0.2,   -0.1,   -0.1,   -0.0,   -0.1,    0.0,   -0.1,   -0.0,    0.1,    0.1,    0.0,   -0.1,   -0.0,   -0.1,   -0.0,    0.1,   -0.1,   -0.1,   -0.1,    0.0,   -0.4,  999.0,  999.0,  999.0,  999.0,  999.0,  999.0,  999.0,  999.0,  999.0,  999.0,  999.0
2012/11/26 10:40,  999.0,  999.0,  999.0,  999.0,  999.0,  999.0,  999.0,  999.0,  999.0,   13.3,   15.9,   16.2,   13.8,   12.6,   12.0,   12.2,   10.3,   15.0,   17.1,   16.2,   17.6,   17.8,   18.2,   18.8,   19.0,   20.3,   22.3,   23.0,   25.3,   24.9,   24.2,   23.4,   24.5,   23.9,   26.1,   25.5,   24.8,   25.0,   16.4,   16.3,   14.9,   16.7,   20.0,  999.0,  999.0,  999.0,  999.0,  999.0,   -0.0,   -0.0,  999.0,   -0.0,    0.1,   -0.0,   -0.1,   -0.3,    0.1,   -0.1,   -0.0,   -0.1,    0.1,   -0.1,   -0.2,   -0.1,    0.0,    0.1,   -0.0,    0.2,    0.0,  999.0,  999.0,  999.0,  999.0,  999.0,   -0.2,  999.0,  999.0,  999.0,  999.0,  999.0
2012/11/26 10:50,  999.0,  999.0,  999.0,  999.0,  999.0,   10.5,    8.6,    8.2,    9.3,   10.1,   11.2,   11.6,   11.6,   11.8,   11.7,   12.9,   14.9,   14.9,   15.1,   16.5,   17.6,   18.3,   18.5,   18.7,   19.9,   21.2,   22.4,   22.9,   26.5,   26.5,   26.5,   25.5,   25.7,   25.9,   24.7,   24.7,   24.5,   24.7,   24.3,   23.3,   21.7,   22.6,   23.9,   25.5,   26.8,   28.0,   29.3,  999.0,  999.0,  999.0,  999.0,  999.0,   -0.1,    0.0,   -0.1,    0.0,   -0.1,    0.1,    0.2,   -0.0,    0.0,   -0.0,    0.0,   -0.0,   -0.2,    0.1,    0.1,   -0.2,   -0.0,  999.0,  999.0,   -0.1,    0.0,  999.0,  999.0,  999.0,  999.0,  999.0,  999.0,  999.0
2012/11/26 11:00,  999.0,  999.0,    2.0,  999.0,    3.4,    4.4,    6.9,    8.7,   10.2,   10.9,   11.9,   11.5,   11.0,   10.8,   11.6,   12.3,   13.8,   14.3,   15.3,   16.1,   16.9,   17.6,   18.9,   19.2,   19.9,   21.7,   23.4,   24.5,   25.2,   25.4,   24.9,   24.1,   24.2,   24.4,   23.6,   23.6,   23.3,   23.1,   23.1,   23.7,   23.5,   23.7,   24.5,   25.3,   26.3,   27.3,   28.5,   29.6,   30.9,  999.0,  999.0,  999.0,  999.0,  999.0,   -0.0,    0.0,    0.0,    0.1,   -0.0,    0.1,   -0.1,    0.1,   -0.2,   -0.0,   -0.0,    0.0,    0.1,    0.1,  999.0,    0.1,   -0.2,  999.0,  999.0,  999.0,   -0.3,  999.0,  999.0,  999.0,  999.0,  999.0
2012/11/26 11:10,  999.0,    2.5,    3.6,    4.3,    4.9,    6.9,    8.9,   11.8,  999.0,  999.0,  999.0,  -45.1,  -45.4,  -44.5,  -43.6,  -42.5,  999.0,  999.0,  999.0,   13.7,   16.3,   18.4,   18.7,   19.8,   21.2,   21.5,   22.3,   24.0,   25.2,   24.7,   24.1,   23.3,   23.1,   23.0,   22.7,   22.4,   21.9,   21.6,   21.4,   21.8,   22.6,   23.8,   25.0,   26.6,   28.4,   30.2,   31.5,   32.7,   32.9,  999.0,  999.0,  999.0,  999.0,  999.0,  999.0,  999.0,  999.0,  999.0,  999.0,    0.1,   -0.0,   -0.1,    0.0,    0.0,    0.1,   -0.0,    0.1,    0.3,    0.0,  999.0,  999.0,    0.0,  999.0,  999.0,  999.0,  999.0,  999.0,  999.0,  999.0,  999.0
2012/11/26 11:20,  999.0,    2.0,    2.8,    3.4,    4.6,    6.9,    9.0,  999.0,  999.0,  999.0,  999.0,  -45.7,  -45.6,  -44.3,  -43.7,  -42.1,  999.0,  999.0,  999.0,  999.0,   18.0,   19.1,   20.0,   21.0,   22.2,   23.0,   23.2,   23.8,   24.7,   25.8,   25.2,   24.7,   23.9,   23.5,   23.0,   23.3,   23.0,   22.6,   22.2,   22.6,   23.7,   24.4,   24.8,   26.1,   28.2,   28.5,   30.4,   31.5,   32.6,   33.7,   34.1,   35.6,   35.4,   36.3,   37.3,   37.7,   39.6,  999.0,  999.0,  999.0,  999.0,  999.0,  999.0,  999.0,  999.0,    0.0,  999.0,  999.0,   -0.4,  999.0,  999.0,  999.0,  999.0,  999.0,  999.0,  999.0,  999.0,  999.0,  999.0,  999.0
2012/11/26 11:30,  999.0,    1.9,    2.7,    3.4,    6.0,    7.9,    9.7,   10.3,  999.0,  999.0,  -44.5,  -43.9,  -43.9,  -43.7,  -43.5,  999.0,  999.0,  999.0,  999.0,  999.0,   17.2,   19.6,   21.3,   22.7,   22.7,   24.1,   24.3,   25.3,   26.1,   25.8,   25.7,   25.7,   24.4,   23.1,   22.6,   22.6,   22.6,   23.7,   25.1,   25.6,   27.0,   27.6,   28.5,   27.9,   27.6,   28.0,   28.0,   28.2,   28.3,   29.0,   29.5,   30.2,   31.1,   33.2,   33.9,   35.7,   37.6,   39.7,   40.3,  999.0,  999.0,  999.0,  999.0,  999.0,  999.0,  999.0,  999.0,  999.0,  999.0,  999.0,  999.0,  999.0,  999.0,  999.0,  999.0,  999.0,  999.0,  999.0,  999.0,  999.0
2012/11/26 11:40,  999.0,    2.0,    2.4,    4.3,    6.8,    8.8,   10.9,   10.4,    9.6,   10.4,   10.5,   10.5,   11.1,   13.3,   14.1,   14.8,   15.7,   17.3,   17.0,   17.6,   18.8,   18.8,   19.5,   20.7,   21.1,   21.4,   22.2,   23.4,   24.7,   25.9,   26.0,   26.0,   25.0,   23.5,   22.4,   22.4,   23.4,   25.0,   26.7,   28.0,   28.9,   29.4,   29.3,   29.0,   29.0,   29.5,   29.4,   29.6,   29.8,   29.5,   29.9,   30.2,   31.2,   33.1,   34.5,   35.7,   37.4,  999.0,  999.0,  999.0,  999.0,  999.0,  999.0,  999.0,  999.0,    0.0,    0.2,  999.0,   -0.1,  999.0,  999.0,  999.0,  999.0,  999.0,  999.0,  999.0,  999.0,  999.0,  999.0,  999.0
2012/11/26 11:50,  999.0,    3.9,    3.9,    4.5,    6.2,    8.1,    9.7,    9.8,    9.3,    9.8,   10.2,   10.5,   11.3,   12.3,   13.1,   13.2,  999.0,   13.7,   14.6,   15.7,   17.5,   18.5,   19.5,   20.0,   21.1,   21.8,   22.7,   23.7,   24.6,   25.6,   26.1,   25.1,   23.7,   22.5,   22.7,   24.5,   26.1,   27.5,   29.4,   30.1,   29.5,   29.7,   30.1,   30.4,   31.2,   32.4,   32.2,   32.8,   33.0,   33.7,   33.5,   33.7,   33.8,   34.3,   35.5,   37.5,   38.6,   41.0,   41.9,  999.0,  999.0,  999.0,  999.0,  999.0,  999.0,    0.2,   -0.2,  999.0,   -0.0,  999.0,  999.0,  999.0,  999.0,  999.0,  999.0,  999.0,  999.0,  999.0,  999.0,  999.0
2012/11/26 12:00,  999.0,  999.0,    4.0,    3.9,    5.3,    7.5,    9.5,    9.7,    9.9,   10.8,   10.3,   10.2,   10.5,   11.5,   12.6,   13.2,   13.8,   14.0,   15.6,   18.0,   18.8,   19.3,   20.2,   20.6,   21.2,   22.3,   23.3,   23.5,   23.2,   25.6,   24.2,   23.7,   23.3,   22.3,   23.3,   24.8,   26.5,   27.8,   28.7,   29.4,   29.9,   31.3,   32.4,   32.0,   32.7,   33.3,   34.2,   33.6,   34.6,   34.8,   34.2,   35.0,   35.0,   35.1,   36.1,   37.6,   39.3,   42.2,   43.4,  999.0,  999.0,  999.0,  999.0,    6.8,  999.0,  999.0,  999.0,  999.0,  999.0,  999.0,  999.0,  999.0,  999.0,  999.0,  999.0,  999.0,  999.0,  999.0,  999.0,  999.0
2012/11/26 12:10,  999.0,  999.0,    1.8,    2.9,    4.4,    6.4,    9.0,    9.8,   10.1,   10.9,   10.4,   10.5,   10.5,   11.0,   11.6,   12.9,   14.8,   16.3,   18.4,   20.6,   22.2,   20.1,   20.6,   21.1,   21.6,   23.1,   24.6,   24.8,   23.1,   22.8,   23.5,   24.4,   26.6,   27.5,   27.8,   28.1,   28.7,   28.8,   29.2,   29.0,   29.5,   29.5,   29.8,   30.6,   31.7,   32.3,   32.5,   33.6,   34.7,   35.0,   35.7,   35.2,   35.8,  999.0,  999.0,  999.0,  999.0,  999.0,  999.0,  999.0,    0.3,   -0.1,   -0.2,    0.1,   -0.2,   -0.3,   -0.2,  999.0,  999.0,  999.0,  999.0,  999.0,  999.0,  999.0,  999.0,  999.0,  999.0,  999.0,  999.0,  999.0
2012/11/26 12:20,  999.0,    2.6,    1.2,    2.5,    4.1,    6.8,    8.5,   10.3,   10.1,    9.9,    9.4,   10.0,   10.1,   11.0,   12.1,   13.6,   14.8,   15.4,   17.7,   21.9,   19.5,   19.3,   20.6,   22.7,   23.6,   24.0,   24.3,   24.5,   24.9,   24.8,   24.9,   25.4,   26.2,   26.6,   27.0,   26.8,   26.9,   26.8,   26.7,   26.1,   25.7,   25.9,   26.9,   27.9,   29.5,   30.1,   30.7,   31.1,   32.0,   33.5,   33.5,   34.2,   35.3,   35.6,   37.7,   37.7,   36.1,   34.9,   33.5,   30.6,   29.4,   30.1,   29.7,  999.0,  999.0,  999.0,  999.0,  999.0,  999.0,  999.0,  999.0,  999.0,  999.0,  999.0,  999.0,  999.0,  999.0,  999.0,  999.0,  999.0
2012/11/26 12:30,  999.0,  999.0,    2.0,    2.1,    4.2,    7.3,    8.3,    8.5,    8.6,    9.0,    9.3,  999.0,  999.0,  999.0,  999.0,  999.0,  -41.7,  999.0,  999.0,  999.0,  999.0,  999.0,  999.0,   19.7,   22.6,   24.1,   25.1,   26.3,   26.8,   27.1,   27.0,   27.9,   27.6,   27.4,   27.0,   26.4,   25.9,   25.0,   24.9,   24.7,   25.1,   25.4,   25.8,   26.4,   27.1,   28.7,   28.4,   28.1,   29.1,   30.3,   31.3,   32.8,   33.3,   33.8,   34.1,   33.3,   32.0,   33.5,   33.3,   30.3,   29.9,   30.7,   29.2,   29.5,   31.7,  999.0,  999.0,  999.0,  999.0,  999.0,  999.0,  999.0,  999.0,  999.0,  999.0,  999.0,  999.0,  999.0,  999.0,  999.0
2012/11/26 12:40,  999.0,    0.2,    2.3,    2.3,  999.0,  999.0,  999.0,  999.0,  999.0,  999.0,  999.0,  -45.8,  -46.5,  -44.5,  -43.7,  -43.0,  -41.7,  -42.2,  999.0,  999.0,  999.0,  999.0,  999.0,   23.0,   23.4,   24.0,   24.7,   24.9,   25.6,   26.5,   26.5,   26.8,   26.6,   25.6,   25.7,   25.3,   25.9,   25.8,   25.6,   25.7,   26.1,   26.4,   26.5,   26.5,   27.3,   28.3,   28.4,   28.2,   28.0,   27.9,   28.2,   28.7,   29.8,   30.9,   31.5,   31.1,   31.0,   31.3,   31.3,   29.9,   30.7,   30.7,   30.3,   30.4,   31.3,  999.0,   35.1,   36.4,  999.0,  999.0,  999.0,  999.0,  999.0,  999.0,  999.0,  999.0,  999.0,  999.0,  999.0,  999.0
2012/11/26 12:50,  999.0,    0.7,    0.9,    2.4,    6.4,    7.2,    7.8,    8.7,  999.0,  999.0,  999.0,  -44.7,  -44.3,  -42.9,  -42.8,  -42.5,  -42.3,  -41.7,  999.0,  999.0,  999.0,  999.0,   17.9,   18.1,   19.5,   20.8,   21.6,   22.5,   23.4,   23.7,   23.8,   24.6,   25.9,   25.8,   25.2,   24.7,   23.8,   24.1,   24.8,   25.7,   26.6,   26.6,   26.7,   26.3,   26.9,   27.0,   26.5,   26.7,   27.0,   27.3,   28.0,   28.2,   27.8,   28.5,   30.0,   29.4,   29.2,   29.9,   30.3,   29.7,   29.9,   31.0,   31.5,  999.0,  999.0,  999.0,  999.0,   37.4,  999.0,  999.0,  999.0,  999.0,  999.0,  999.0,  999.0,  999.0,  999.0,  999.0,  999.0,  999.0
2012/11/26 13:00,  999.0,    0.6,    0.8,    2.3,    5.9,    7.8,  999.0,  999.0,  999.0,  999.0,  999.0,  -45.8,  -44.0,  -44.0,  -42.9,  -42.9,  -43.2,  -42.2,  999.0,  999.0,  999.0,  999.0,  999.0,   16.9,   17.3,   19.3,   20.5,   21.3,   21.5,   22.3,   22.5,   23.6,   23.7,   23.5,   23.7,   24.1,   24.6,   24.4,   24.4,   24.3,   24.1,   24.0,   24.0,   24.4,   24.6,   24.8,   25.2,   25.3,   25.6,   26.2,   26.3,   26.3,   26.3,   26.7,   27.3,   27.8,   27.1,   27.9,   29.2,   28.8,   29.4,   31.6,   32.2,   33.3,   36.1,   36.5,  999.0,  999.0,  999.0,  999.0,  999.0,  999.0,  999.0,  999.0,  999.0,  999.0,  999.0,  999.0,  999.0,  999.0
2012/11/26 13:10,  999.0,    1.3,    1.6,    3.4,    6.1,    7.4,    8.1,    7.9,  999.0,  999.0,  999.0,  999.0,  -47.1,  -46.1,  -45.4,  -45.2,  -44.2,  -42.2,  999.0,  999.0,  999.0,  999.0,   14.9,   15.9,   16.9,   19.0,   20.1,   20.7,   21.7,   22.2,   22.5,   22.6,   23.5,   24.3,   24.5,   25.0,   26.1,   26.4,   26.7,   27.2,   26.7,   27.3,   28.1,   27.9,   27.7,   27.1,   26.4,   25.7,   24.6,   24.1,   23.7,   23.9,   24.0,   24.2,   24.8,   25.8,   26.5,   27.6,   28.8,   28.5,   30.8,   31.9,   31.8,   33.0,   34.1,   33.5,   33.7,  999.0,  999.0,  999.0,  999.0,  999.0,  999.0,  999.0,  999.0,  999.0,  999.0,  999.0,  999.0,  999.0
2012/11/26 13:20,  999.0,    1.3,    2.2,    5.1,    7.0,    6.9,    7.4,    6.9,  999.0,  999.0,  999.0,  -47.2,  -44.4,  -43.4,  -44.1,  -40.8,  -40.1,  -36.1,  999.0,  999.0,  999.0,  999.0,  999.0,   16.9,   17.5,   17.8,   18.0,   18.6,   19.7,   20.9,   22.3,   23.2,   23.9,   25.0,   25.9,   26.6,   27.4,   27.5,   27.7,   27.2,   27.9,   27.8,   27.4,   26.5,   25.2,   24.0,   23.5,   23.0,   22.5,   22.7,   23.4,   24.0,   24.9,   25.8,   27.7,   28.6,   29.5,   31.0,   32.0,   32.4,   32.6,   32.9,   32.6,   33.3,   33.6,   33.4,   34.1,   34.7,   33.8,   34.5,   35.9,   34.0,  999.0,  999.0,  999.0,  999.0,  999.0,  999.0,  999.0,  999.0
2012/11/26 13:30,  999.0,    0.7,    2.7,    5.9,  999.0,  999.0,  999.0,  999.0,  999.0,  -48.7,  -47.2,  -45.9,  -44.9,  -44.6,  -44.6,  -44.6,  -43.8,  -43.0,  -42.4,  999.0,  999.0,  999.0,  999.0,   16.5,   16.8,   17.5,   18.8,   20.3,   21.3,   23.1,   24.6,   25.5,   26.2,   26.4,   26.2,   26.6,   27.2,   26.8,   26.3,   25.6,   24.6,   23.6,   23.0,   22.6,   23.0,   23.6,   24.2,   24.5,   24.6,   24.9,   25.5,   26.4,   26.4,   26.4,   26.6,   27.6,   28.7,   29.8,   31.1,   31.7,   31.7,   31.9,   31.2,   31.3,   32.1,   33.0,   34.9,   35.9,  999.0,   37.8,   36.3,  999.0,  999.0,  999.0,  999.0,  999.0,  999.0,  999.0,  999.0,  999.0
2012/11/26 13:40,  999.0,    0.5,    2.6,    5.3,    5.2,  999.0,  999.0,  999.0,  999.0,  999.0,  999.0,  999.0,  -46.8,  -45.8,  -45.6,  -45.6,  -45.5,  -45.7,  -43.7,  -40.7,  999.0,  999.0,  999.0,  999.0,   21.2,   23.3,   23.8,   24.3,   24.7,   25.4,   25.6,   25.2,   25.3,   25.2,   25.6,   26.1,   25.8,   25.4,   25.4,   25.1,   24.5,   24.1,   23.7,   23.8,   24.2,   25.2,   26.1,   26.7,   26.3,   26.9,   27.2,   27.2,   27.8,   28.5,   29.5,   30.1,   30.5,   31.2,   32.4,   32.6,   33.5,   34.6,  999.0,   36.0,   37.8,  999.0,  999.0,  999.0,  999.0,  999.0,  999.0,  999.0,  999.0,  999.0,  999.0,  999.0,  999.0,  999.0,  999.0,  999.0
2012/11/26 13:50,  999.0,    1.0,    3.7,    5.5,    5.6,    4.5,  999.0,  -50.1,  -49.5,  -47.8,  -46.5,  -46.4,  -46.1,  -45.2,  -44.3,  -43.5,  -42.1,  -41.0,  -41.2,  -38.9,  999.0,  999.0,  999.0,  999.0,   24.6,   24.0,   24.4,   24.2,   24.3,   24.9,   24.7,   24.0,   23.7,   24.0,   24.5,   24.4,   24.5,   24.4,   25.1,   24.4,   24.8,   24.7,   24.6,   25.2,   26.2,   27.0,   27.9,   28.6,   29.6,   29.7,   29.8,   29.6,   29.7,   30.7,   31.9,   33.1,   33.8,   35.5,   35.8,   35.4,   35.4,   35.5,   35.5,   35.7,   35.2,   34.6,   35.1,   35.1,   35.5,   35.8,   35.8,   34.9,   35.1,   36.1,   36.5,  999.0,  999.0,  999.0,  999.0,  999.0
2012/11/26 14:00,  999.0,    1.8,    5.1,  999.0,  -49.8,  -51.0,  -51.0,  -50.1,  -48.7,  -46.5,  -46.0,  -45.2,  -44.6,  -43.9,  -43.2,  -42.4,  -40.9,  -39.6,  -39.3,  -39.1,  999.0,  999.0,  999.0,  999.0,  999.0,   20.9,   20.9,   21.6,   23.1,   24.0,   25.1,   25.6,   25.4,   25.9,   26.2,   26.6,   26.5,   26.6,   26.4,   26.7,   27.1,   27.4,   28.3,   29.3,   29.7,   30.1,   30.7,   30.9,   30.6,   31.6,   31.9,   32.0,   31.8,   32.7,   33.3,   34.0,   34.5,   34.3,   34.1,   33.3,   33.7,   33.4,  999.0,  999.0,  999.0,  999.0,  999.0,  999.0,  999.0,  999.0,  999.0,  999.0,  999.0,  999.0,  999.0,  999.0,  999.0,  999.0,  999.0,  999.0
2012/11/26 14:10,  999.0,    3.2,  999.0,  999.0,  -52.6,  -40.6,  -49.8,  -47.9,  -47.3,  -46.5,  -46.1,  -46.4,  -45.4,  -44.2,  -43.2,  -42.8,  -40.9,  -38.9,  -37.5,  -39.5,  -38.3,  999.0,  999.0,  999.0,  999.0,  999.0,   18.6,   19.5,   20.8,   22.9,   23.2,   21.7,   22.5,   23.5,   23.7,   24.5,   26.3,   26.5,   24.7,   26.2,   25.0,   24.3,   26.1,  999.0,   26.7,  999.0,  999.0,    9.5,    7.1,    0.0,    0.0,   -0.1,   -0.0,    0.0,    0.0,   -0.0,   -0.1,    0.0,    0.1,   -0.0,    0.1,   -0.1,   -0.3,   -0.1,   -0.1,   -0.1,    0.1,    1.3,    0.1,    1.4,   -0.2,    1.1,    0.2,  999.0,    0.1,  999.0,  999.0,  999.0,  999.0,  999.0
2012/11/26 14:20,  999.0,  999.0,    5.7,    4.7,    3.7,  999.0,  999.0,  999.0,  999.0,  -44.2,  -46.0,  -46.5,  -46.0,  -45.0,  -45.1,  -45.4,  -44.7,  -43.6,  -41.8,  -38.9,  -37.9,  -38.8,  999.0,  999.0,  999.0,   21.6,   21.7,   22.2,   22.6,   22.3,   21.9,   23.3,   26.7,   23.5,   25.0,   26.0,   25.8,   25.3,   27.0,   28.4,   27.8,   28.7,   28.6,   28.6,   31.0,   30.9,   32.6,   32.9,   32.0,   32.9,   31.1,   31.2,   20.6,    0.1,    0.0,    0.0,    0.0,   -0.0,   -0.1,    0.0,   -0.0,    0.0,   -0.0,    0.0,   -0.0,    0.0,   -0.1,    0.1,    0.2,    0.2,    0.0,   -0.1,   -0.1,  999.0,   -0.0,   -0.0,  999.0,  999.0,  999.0,  999.0
2012/11/26 14:30,  999.0,  999.0,    5.9,    5.9,    4.8,  999.0,  999.0,  999.0,  999.0,  -23.0,  -27.7,  -19.9,  -46.4,  -45.3,  -45.6,  -45.1,  -46.1,  -43.4,  -40.0,  999.0,  999.0,  999.0,  999.0,  999.0,   18.8,   19.0,   18.2,   18.7,   19.3,   20.3,   21.1,   21.8,   25.3,   26.4,   26.5,   27.2,   27.2,   27.6,   27.2,   28.3,   29.6,   29.0,   28.7,   29.3,   29.7,   30.3,   31.0,   31.0,   33.0,   33.9,   34.5,   29.1,   25.7,   32.3,   27.2,   27.1,  999.0,   -0.1,  999.0,  -13.7,    0.1,    0.1,   -0.0,    0.1,    0.0,    0.1,    0.3,   -0.2,   -0.2,  999.0,  999.0,  999.0,    0.0,   -0.1,  999.0,  999.0,  999.0,  999.0,  999.0,  999.0
2012/11/26 14:40,  999.0,    4.4,    7.2,    6.3,    5.3,    6.4,    7.0,   -5.0,   -6.2,  -12.0,  -45.3,  -46.2,  999.0,  -45.5,  -45.3,  -46.7,  -44.6,  -43.8,  -40.4,  -41.2,  999.0,  999.0,  999.0,  999.0,   18.1,   19.3,   19.7,   20.9,   21.2,   21.2,   22.7,   24.6,   26.2,   26.7,   27.2,   27.8,   28.4,   27.7,   28.0,   28.4,   29.5,   29.7,   30.0,   30.8,   31.7,   30.9,   31.3,   32.9,   32.5,  999.0,   33.3,   32.7,  999.0,   33.0,  999.0,   31.9,   32.6,   24.7,   26.1,   23.5,   17.7,  999.0,  999.0,  999.0,    8.2,  999.0,    0.0,    0.1,   -0.0,  999.0,  999.0,  999.0,   -0.1,  999.0,  999.0,  999.0,  999.0,  999.0,  999.0,  999.0
2012/11/26 14:50,  999.0,    5.9,    6.9,    6.8,    4.4,  999.0,  999.0,  999.0,  999.0,  -47.7,  -47.4,  -46.9,  -46.4,  -46.4,  -46.4,  -45.8,  -44.8,  -45.3,  -45.1,  -44.3,  999.0,  999.0,  999.0,  999.0,   17.9,   19.5,   20.1,   20.4,   21.0,   22.1,   23.1,   23.7,   25.5,   26.4,   26.5,   27.1,   28.1,   28.1,   29.4,   29.5,   29.4,   29.6,   29.4,   28.7,   29.7,   30.1,   30.5,   30.5,   31.3,   31.7,   31.9,   33.9,   33.1,  999.0,  999.0,  999.0,  999.0,  999.0,    5.9,    9.2,    7.8,    8.4,    6.5,    6.5,    6.2,    6.0,    8.2,    0.1,  999.0,  999.0,  999.0,  999.0,  999.0,   10.5,  999.0,  999.0,  999.0,  999.0,  999.0,  999.0
2012/11/26 15:00,  999.0,    5.4,    5.0,    4.2,    4.6,  999.0,  999.0,  999.0,  999.0,  -47.3,  -47.1,  -47.5,  -47.9,  -48.2,  -48.7,  -47.8,  -46.3,  -45.9,  -45.2,  -43.8,  -42.7,  -40.7,  999.0,  999.0,  999.0,  999.0,   21.9,   22.2,   22.4,   23.3,   24.8,   24.7,   24.9,   26.2,   26.8,   27.5,   28.1,   27.7,   27.5,   26.6,   26.7,   27.3,   27.4,   28.2,   28.2,   28.8,   29.6,   29.9,   30.1,   30.9,   31.2,   31.2,   31.9,   31.5,   31.3,   31.3,   32.3,   32.9,   31.6,   29.8,   31.2,   28.5,   26.1,   27.1,  999.0,   31.4,  999.0,  999.0,   22.5,   22.1,   25.1,   28.3,   27.8,   29.6,  999.0,  999.0,  999.0,  999.0,  999.0,  999.0
2012/11/26 15:10,  999.0,    5.8,    5.8,    4.7,    5.0,  -12.8,   -7.5,  -30.1,  -49.6,  -48.9,  -48.5,  -48.1,  -47.7,  -47.3,  -47.5,  -47.9,  -47.2,  -46.7,  -46.1,  -45.3,  -44.7,  -43.9,  -43.6,  -42.4,  -41.0,  -40.6,  -39.7,  -15.0,   -2.8,   -1.1,    5.4,   15.1,   23.1,   24.7,    9.2,   26.6,   20.7,   23.6,   29.1,   29.3,   29.8,   30.2,   30.9,   31.6,   32.2,   33.2,   34.3,   34.3,   34.7,   34.7,   33.7,   32.8,   33.9,   34.7,   34.9,   36.1,   33.9,   34.6,   33.6,   29.5,   29.2,   28.4,   18.0,   10.7,   13.2,    6.0,    5.8,    3.0,    8.7,    3.3,    6.4,  999.0,  999.0,    7.2,  999.0,  999.0,  999.0,  999.0,  999.0,  999.0
2012/11/26 15:20,  999.0,    6.0,    6.6,    6.6,    6.3,  -21.0,  -48.1,  -48.5,  -48.1,  -48.6,  -48.5,  -48.2,  -48.1,  -47.6,  -47.4,  -45.9,  -46.6,  -46.9,  -46.2,  -46.7,  -46.0,  -44.3,  -43.0,  -41.9,  -41.2,  -38.1,  -37.5,  -36.6,  -34.7,   -9.7,   22.0,   17.8,   25.6,   25.8,  -13.6,    9.6,   18.1,   21.5,   21.1,   22.5,   28.0,   22.6,   21.4,   24.8,   22.4,   26.6,   36.2,   22.7,   22.1,   18.6,   15.2,  999.0,    2.9,    0.0,   -0.2,   12.7,   11.4,   11.1,   10.6,    8.2,    7.1,    6.2,    8.1,   -0.7,   -0.5,   -0.1,  999.0,   -0.3,    0.0,  999.0,  999.0,   -0.0,  999.0,    0.1,  999.0,  999.0,  999.0,  999.0,  999.0,  999.0
2012/11/26 15:30,  999.0,    8.1,  999.0,    8.1,    7.7,  999.0,  999.0,  999.0,  -36.0,  -24.1,  -34.8,  -32.0,  -32.8,  -42.8,  -41.4,  -41.9,  -44.0,  -44.0,  -43.8,  -43.9,  -42.0,  -39.9,  -37.3,  -35.4,  -35.0,  -35.5,  999.0,  999.0,  999.0,  999.0,  999.0,  999.0,  999.0,    0.0,    0.0,   -0.1,   -0.4,    0.2,    0.0,    0.1,   -0.2,   -0.7,   -0.7,   -1.0,   -0.7,   -0.4,  999.0,   -0.0,   -0.4,   -0.4,   -0.4,   -0.1,    0.1,    0.1,    0.0,    0.1,    0.0,  999.0,    0.0,    0.1,   -0.0,   -0.0,    0.0,   -0.0,    0.0,   -0.2,    0.1,   -0.0,  999.0,  999.0,  999.0,  999.0,  999.0,  999.0,   -0.0,  999.0,  999.0,  999.0,  999.0,  999.0
2012/11/26 15:40,  999.0,  999.0,    7.7,    8.4,    7.1,    5.5,    6.8,   -6.8,   -9.3,  -13.1,  -23.8,  -34.2,  -45.3,  -46.4,  -45.3,  -44.7,  -43.3,  -42.8,  999.0,  -41.8,  -41.7,  999.0,  -19.0,  -36.2,  -26.3,    3.9,    5.0,    9.1,   10.7,   13.0,   10.8,   14.8,   16.7,   18.2,   18.0,   18.5,    8.8,    9.9,    9.7,    9.6,  999.0,  999.0,  999.0,  999.0,  999.0,  999.0,  999.0,    0.1,   -0.0,    0.1,    0.2,   -0.1,    0.1,    0.0,    0.0,   -0.1,   -0.0,   -0.1,    0.0,    0.0,   -0.0,   -0.0,    0.0,   -0.1,   -0.0,    0.0,    0.0,   -0.2,    0.0,   -0.2,    0.0,  999.0,  999.0,  999.0,  999.0,  999.0,  999.0,  999.0,  999.0,  999.0
2012/11/26 15:50,  999.0,  999.0,  999.0,  -23.8,  -20.4,  -23.2,  -29.0,  999.0,  999.0,  999.0,  999.0,  999.0,  -47.5,  -45.7,  -44.0,  -43.4,  -38.5,  -36.6,  -38.5,  -40.2,  -39.3,  -41.3,  999.0,  999.0,  999.0,  999.0,   17.4,   23.0,   22.6,    7.1,  999.0,  999.0,  999.0,   -0.4,   -0.3,   -0.2,    0.2,   -0.2,    0.2,   -0.0,   -0.2,   -0.2,    0.1,   -0.0,   -0.1,    0.2,   -0.1,   -0.0,   -0.0,   -0.0,   -0.1,   -0.0,    0.0,    0.1,   -0.1,    0.0,    0.0,   -0.1,   -0.0,    0.0,    0.1,    0.1,    0.1,  999.0,   -0.0,   -0.1,    0.0,   -0.1,    0.1,  999.0,    0.1,   -0.0,  999.0,  999.0,  999.0,  999.0,  999.0,  999.0,  999.0,  999.0
2012/11/26 16:00,  999.0,  999.0,  999.0,    4.4,    3.9,  999.0,    3.2,  999.0,  999.0,    4.4,    4.9,    4.2,    4.8,    5.3,   11.7,    4.6,    4.6,    4.5,    5.2,   10.5,   -0.2,   15.3,   15.0,    9.4,    5.8,    0.1,   -0.2,   -0.3,    4.5,    0.2,    0.0,    0.4,    0.2,    0.2,    0.1,    0.5,   -0.1,    0.1,    0.0,    0.1,    0.0,   -0.0,    0.1,    0.2,    0.0,   -0.0,    0.1,    0.1,    0.2,    0.0,    0.1,    0.2,   -0.0,   -0.3,   -0.0,   -0.1,   -0.1,   -0.0,    0.0,   -0.0,   -0.0,   -0.1,   -0.1,    0.0,   -0.0,   -0.1,   -0.0,    0.1,   -0.2,   -0.1,  999.0,   -0.1,    0.1,    0.1,  999.0,  999.0,  999.0,  999.0,  999.0,  999.0
2012/11/26 16:10,  999.0,  999.0,  999.0,    0.1,    0.1,   -0.3,  999.0,   -0.3,   -0.1,   -0.5,   -0.7,   -0.7,   -0.5,   -0.5,   -0.2,   -0.3,   -0.1,    0.2,   -0.1,   -0.1,    0.0,   -0.1,   -0.2,    0.0,   -0.0,   -0.1,    0.1,    0.2,    0.3,    0.1,    0.1,    0.1,    0.1,    0.4,    0.5,    0.1,   -0.0,    0.3,    0.3,    0.1,   -0.2,   -0.1,    0.1,   -0.1,   -0.1,    0.0,    0.0,    0.1,    0.0,   -0.0,   -0.1,    0.0,    0.0,   -0.2,   -0.0,    0.1,   -0.0,    0.1,    0.1,    0.0,   -0.0,   -0.1,    0.1,    0.0,   -0.1,   -0.1,    0.1,   -0.0,   -0.0,  999.0,    0.0,   -0.1,   -0.1,   -0.0,  999.0,  999.0,  999.0,  999.0,  999.0,  999.0
2012/11/26 16:20,  999.0,  999.0,  999.0,   -0.0,   -0.0,   -0.0,   -0.0,   -0.1,    0.6,    0.1,    0.5,    0.1,    0.0,   -0.2,    0.0,   -0.2,   -0.1,   -0.1,   -0.2,   -0.1,    0.0,    0.1,   -0.0,    4.7,   -0.1,    0.2,    0.2,    0.4,   -0.0,    0.1,    0.2,    0.1,    0.0,    0.2,    0.4,   -0.1,    0.1,    0.2,    0.1,   -0.0,   -0.0,    0.1,   -0.1,   -0.0,   -0.1,   -0.1,   -0.2,   -0.0,   -0.0,   -0.0,   -0.1,    0.1,    0.0,    0.0,    0.1,   -0.1,   -0.0,    0.1,   -0.1,   -0.0,    0.0,   -0.0,   -0.0,   -0.1,   -0.1,   -0.0,    0.1,    0.1,    0.0,   -0.1,    0.0,   -0.0,    0.2,   -0.1,   -0.2,  999.0,  999.0,  999.0,  999.0,  999.0
2012/11/26 16:30,  999.0,  999.0,  999.0,    0.1,   -0.2,   10.1,    9.4,    9.9,  999.0,   11.6,    6.6,    3.8,    4.1,    4.4,   10.9,  999.0,  999.0,   11.3,   11.2,   15.0,   15.8,   15.1,   17.6,   17.6,   18.2,   17.8,   20.5,   20.4,   20.2,   20.7,   21.3,   22.2,   22.1,   20.4,   21.5,  999.0,  999.0,  999.0,  999.0,  999.0,    0.0,   -0.2,   -0.1,   -0.2,    0.1,   -0.1,  999.0,   -0.0,    0.0,   -0.0,   -0.1,   -0.2,   -0.1,    0.1,    0.1,    0.0,    0.0,   -0.2,   -0.1,   -0.1,   -0.1,    0.2,   -0.0,    0.0,   -0.0,    0.0,    0.2,    0.1,    0.1,   -0.1,  999.0,   -0.1,  999.0,   -0.2,  999.0,  999.0,  999.0,  999.0,  999.0,  999.0
2012/11/26 16:40,  999.0,  999.0,  999.0,  999.0,  999.0,    5.3,    8.7,   12.4,    9.2,    1.8,   -2.1,    1.5,   14.2,   -2.1,   -0.6,   11.7,   11.9,   13.1,  999.0,   16.5,   19.6,   18.6,   19.7,   21.6,   18.2,   19.1,   20.4,   20.8,   21.0,   22.2,   23.4,   24.7,  999.0,  999.0,  999.0,  999.0,  999.0,  999.0,  999.0,    1.0,    0.1,    0.5,    0.3,    0.5,    0.3,    0.8,    0.6,    0.1,    0.1,    0.1,    0.3,    0.0,   -0.1,    0.2,    0.1,    0.0,    0.3,    0.1,    0.5,   -0.1,   -0.0,    0.1,    0.1,    0.2,   -0.2,   -0.2,  999.0,    0.1,  999.0,  999.0,  999.0,  999.0,  999.0,  999.0,  999.0,  999.0,  999.0,  999.0,  999.0,  999.0
2012/11/26 16:50,  999.0,    5.9,  999.0,  999.0,    5.1,  999.0,    6.4,    7.8,    9.9,   10.5,   -0.2,   -0.0,   10.7,    9.4,   10.3,   10.7,   12.6,   13.2,   11.9,   14.8,   13.3,   -2.1,  -10.9,   14.3,   15.6,   17.5,   18.2,   19.3,   20.4,   21.3,   22.6,   22.9,   23.5,   24.5,   24.8,  999.0,  999.0,  999.0,  999.0,  999.0,  999.0,   -0.6,    0.6,    0.6,    0.3,    1.6,    1.4,    0.2,    0.2,  999.0,    0.2,    0.2,    0.2,    0.2,    0.2,    0.1,    0.3,    0.0,   -0.0,    0.1,    0.0,   -0.0,   -0.0,   -0.0,    0.1,    0.0,  999.0,  999.0,  999.0,  999.0,  999.0,  999.0,  999.0,  999.0,  999.0,  999.0,  999.0,  999.0,  999.0,  999.0
2012/11/26 17:00,  999.0,    1.3,    8.9,   11.9,   12.1,   11.2,   11.4,   10.9,    8.7,   11.0,   10.5,   10.6,   11.7,   12.8,   12.5,   12.3,   11.9,   11.5,   13.0,   13.7,   15.9,   16.2,   15.9,   15.7,   16.7,   16.6,   17.3,   19.2,   21.0,   21.5,   23.1,   23.9,  999.0,  999.0,  999.0,  999.0,  999.0,  999.0,  999.0,  999.0,  999.0,  999.0,  999.0,    0.8,    0.3,   -0.0,    0.3,    0.7,    0.3,    0.1,   -0.1,    0.0,    0.2,    0.0,    0.2,   -0.1,    0.2,   -0.0,   -0.0,   -0.3,  999.0,  999.0,  999.0,  999.0,    0.2,    0.2,  999.0,  999.0,  999.0,  999.0,  999.0,  999.0,  999.0,  999.0,  999.0,  999.0,  999.0,  999.0,  999.0,  999.0
2012/11/26 17:10,  999.0,    4.3,    5.2,    7.7,    7.6,  999.0,    8.6,    8.3,    7.0,    7.1,    9.2,   10.3,   11.3,   12.5,   12.4,   12.2,   12.2,   12.3,   12.4,   13.7,   15.2,   15.7,   15.5,   15.6,   15.3,   16.5,   16.6,   17.6,   18.8,  999.0,  999.0,  999.0,  999.0,  999.0,  999.0,  999.0,  999.0,  999.0,  999.0,  999.0,  999.0,  999.0,  999.0,  999.0,  999.0,  999.0,  999.0,  999.0,  999.0,  999.0,  999.0,  999.0,   -0.0,  999.0,  999.0,  999.0,   -0.2,   -0.1,   -0.4,  999.0,    0.2,  999.0,  999.0,  999.0,  999.0,  999.0,  999.0,  999.0,  999.0,  999.0,  999.0,  999.0,  999.0,  999.0,  999.0,  999.0,  999.0,  999.0,  999.0,  999.0
2012/11/26 17:20,  999.0,    3.8,    3.0,    4.8,    4.2,    5.4,  999.0,    6.1,    7.4,    8.5,    9.5,   11.3,   11.7,   12.5,   12.8,   12.9,   12.8,   12.4,   11.7,   11.5,   12.3,   12.0,   12.2,   12.5,   13.2,   17.4,   18.5,   19.2,   19.3,   20.7,   21.3,  999.0,  999.0,  999.0,  999.0,  999.0,  999.0,  999.0,  999.0,  999.0,  999.0,  999.0,  999.0,  999.0,  999.0,  999.0,  999.0,  999.0,  999.0,  999.0,  999.0,  999.0,    0.2,    0.1,  999.0,    0.2,   -0.3,   -0.3,    0.1,  999.0,  999.0,  999.0,  999.0,  999.0,  999.0,  999.0,  999.0,  999.0,  999.0,  999.0,  999.0,  999.0,  999.0,  999.0,  999.0,  999.0,  999.0,  999.0,  999.0,  999.0
2012/11/26 17:30,  999.0,  999.0,    0.0,    0.1,    1.5,    2.6,    4.5,    0.6,  999.0,  999.0,    7.6,    6.7,    8.8,    9.9,   10.2,   10.0,   10.7,   11.1,   11.8,   11.7,   11.1,   11.5,   12.9,   14.1,   14.6,  999.0,  999.0,  999.0,  999.0,  999.0,  999.0,  999.0,  999.0,  999.0,  999.0,  999.0,  999.0,  999.0,  999.0,  999.0,  999.0,  999.0,  999.0,  999.0,   -0.1,    0.2,  999.0,  999.0,    0.0,   -0.5,   -0.0,  999.0,    0.3,    0.2,  999.0,  999.0,   -0.1,  999.0,   -0.1,  999.0,  999.0,  999.0,  999.0,  999.0,   -0.0,   -0.1,  999.0,  999.0,  999.0,  999.0,  999.0,  999.0,  999.0,  999.0,  999.0,  999.0,  999.0,  999.0,  999.0,  999.0
2012/11/26 17:40,  999.0,    0.1,   -0.0,    0.4,    1.4,    2.1,    0.7,    1.1,  999.0,  999.0,    6.9,    7.9,    8.1,    9.8,    9.1,    9.2,    9.3,    9.1,   10.5,   11.9,   11.5,   12.4,   13.4,   14.1,   13.0,   15.0,  999.0,  999.0,  999.0,  999.0,  999.0,  999.0,  999.0,  999.0,  999.0,  999.0,  999.0,  999.0,   -0.5,    0.1,   -0.0,   -0.0,    0.0,   -0.3,   -0.2,    0.3,    0.3,  999.0,    0.0,  999.0,    0.1,    0.5,   -0.2,    0.1,   -0.1,    0.3,    0.1,    0.0,    0.5,    0.3,    0.3,   -0.1,  999.0,    0.0,   -0.1,    0.2,  999.0,    0.2,  999.0,  999.0,  999.0,  999.0,  999.0,  999.0,  999.0,  999.0,  999.0,  999.0,  999.0,  999.0
2012/11/26 17:50,  999.0,  999.0,    1.0,    1.5,    1.5,  999.0,  999.0,  999.0,  999.0,    2.5,    4.0,  999.0,    8.7,  999.0,    8.9,    9.6,   10.2,   10.6,   11.1,   12.1,   12.7,   13.4,   13.8,   14.0,   13.5,   14.2,  999.0,  999.0,  999.0,  999.0,  999.0,    0.2,  999.0,  999.0,    0.5,    0.2,    0.0,  999.0,   -0.0,   -0.4,  999.0,   -0.6,   -0.1,    0.2,    0.1,   -0.0,  999.0,    0.1,   -0.3,  999.0,    0.3,    0.1,   -0.2,    0.2,    0.1,   -0.0,   -0.2,   -0.3,    0.4,    0.1,    0.1,    0.2,    0.0,   -0.1,   -0.0,   -0.4,  999.0,    0.2,    0.2,  999.0,  999.0,  999.0,  999.0,  999.0,  999.0,  999.0,  999.0,  999.0,  999.0,  999.0
2012/11/26 18:00,  999.0,    0.5,    1.7,    0.8,    1.0,   -0.0,   -0.9,   -1.7,   -0.4,   -0.8,   -1.5,   -1.2,   -0.6,    0.6,    0.9,   -0.0,    4.0,    2.1,    3.5,    2.5,    7.9,  999.0,   -2.1,  999.0,  999.0,  999.0,  999.0,  999.0,   -0.1,   -0.2,    0.0,  999.0,  999.0,  999.0,  999.0,    0.2,  999.0,  999.0,    0.0,  999.0,  999.0,   -0.5,  999.0,  999.0,    0.3,   -0.0,    0.1,   -0.2,    0.2,  999.0,   -0.6,   -0.1,   -0.0,   -0.2,    0.1,    0.1,    0.1,   -0.1,    0.3,   -0.3,  999.0,  999.0,    0.0,   -0.0,   -0.2,   -0.0,  999.0,  999.0,  999.0,  999.0,  999.0,  999.0,  999.0,  999.0,  999.0,  999.0,  999.0,  999.0,  999.0,  999.0
2012/11/26 18:10,  999.0,   -0.5,    2.3,    1.9,    1.5,  999.0,  999.0,  999.0,  999.0,  999.0,  999.0,  999.0,  999.0,  999.0,    9.6,    9.6,    9.4,    9.3,   10.1,  999.0,  999.0,  999.0,  999.0,  999.0,  999.0,   -0.2,   -0.7,   -1.0,  999.0,   -0.1,   -0.0,    0.4,  999.0,  999.0,   -0.4,   -0.2,   -0.2,   -0.1,   -0.1,   -0.2,   -0.8,   -1.0,   -0.4,   -0.0,   -0.0,    0.0,    0.0,   -0.6,    0.1,    0.2,    0.2,   -0.2,   -0.0,   -0.0,   -0.1,    0.1,    0.1,    0.0,   -0.0,    0.1,    0.1,    0.2,   -0.0,   -0.2,  999.0,    0.3,    0.1,  999.0,   -0.1,  999.0,  999.0,  999.0,  999.0,  999.0,  999.0,  999.0,  999.0,  999.0,  999.0,  999.0
2012/11/26 18:20,  999.0,  999.0,    1.4,    1.8,    2.2,    0.1,  999.0,    7.8,   12.5,  999.0,   13.6,  999.0,  999.0,  999.0,  999.0,    9.6,    9.5,    9.6,   10.2,    9.3,  999.0,  999.0,  999.0,  999.0,  999.0,  999.0,  999.0,   -2.7,  999.0,   -1.6,   -5.1,   -4.6,  999.0,  999.0,   -0.2,   -2.6,   -4.3,  999.0,   -1.8,   -0.8,   -1.4,  999.0,   -0.3,   -0.6,  999.0,  999.0,   -0.5,   -0.3,    0.2,    0.2,    0.2,    0.0,    0.3,    0.3,   -0.3,   -0.1,    0.1,    0.2,    0.1,    0.4,   -0.1,   -0.1,   -0.0,   -0.0,  999.0,    0.1,  999.0,    0.2,    0.2,  999.0,  999.0,  999.0,  999.0,  999.0,  999.0,  999.0,  999.0,  999.0,  999.0,  999.0
2012/11/26 18:30,  999.0,  999.0,  999.0,  999.0,  999.0,   12.1,   15.3,  999.0,   20.5,   19.6,   20.2,   23.8,  999.0,  999.0,   28.2,  999.0,  999.0,  999.0,    8.1,   10.3,   10.0,   12.6,   12.8,   14.6,   17.9,  999.0,  999.0,  999.0,  999.0,  999.0,  999.0,  999.0,  999.0,   15.7,    8.8,   11.1,  999.0,    8.5,  999.0,  999.0,  999.0,  999.0,  999.0,   -0.5,   -0.0,    0.1,   -0.0,    0.3,  999.0,    0.2,  999.0,    0.3,   -0.0,    0.2,   -0.0,   -0.0,   -0.1,   -0.2,   -0.2,    0.1,    0.1,    0.1,   -0.2,   -0.0,    0.3,   -0.0,    1.0,   -0.1,   -0.1,  999.0,  999.0,  999.0,  999.0,  999.0,  999.0,  999.0,  999.0,  999.0,  999.0,  999.0
2012/11/26 18:40,  999.0,  999.0,  999.0,  999.0,  999.0,  999.0,    5.3,    1.7,    4.3,  999.0,  999.0,  999.0,  999.0,  999.0,  999.0,  999.0,  999.0,  999.0,  999.0,    8.4,    8.6,    9.3,   11.0,  999.0,  999.0,  999.0,  999.0,  999.0,   -2.0,   -1.8,   -0.4,   -0.7,  999.0,   -0.3,    0.3,   -0.4,    0.2,    0.1,   -0.1,    0.0,   -0.0,  999.0,   -0.2,   -1.0,   -0.6,   -0.3,   -0.2,    0.2,   -0.2,   -0.2,   -0.1,    0.2,    0.1,    0.1,    0.6,   -0.0,    0.3,   -0.1,    0.1,    0.2,    0.1,    0.1,   -0.1,   -0.0,    0.3,   -0.3,    0.1,    0.2,    0.1,  999.0,  999.0,  999.0,  999.0,  999.0,  999.0,  999.0,  999.0,  999.0,  999.0,  999.0
2012/11/26 18:50,  999.0,    1.5,  999.0,    1.4,    4.2,  999.0,  999.0,  999.0,  999.0,    2.1,  999.0,    3.7,    4.5,    4.6,    3.8,    0.0,   -0.1,   -0.1,    2.6,    2.9,    2.8,    4.5,    4.3,   -2.5,  999.0,  999.0,  999.0,  999.0,  999.0,  999.0,   -1.0,   -0.5,  999.0,  999.0,  999.0,  999.0,  999.0,  999.0,  999.0,  999.0,  999.0,  999.0,    0.1,  999.0,  999.0,  999.0,    0.0,  999.0,  999.0,  999.0,  999.0,    0.1,  999.0,  999.0,    0.1,    0.1,    0.2,   -0.1,   -0.0,   -0.0,   -0.0,    0.2,   -0.1,    0.1,   -0.0,    0.3,   -0.1,  999.0,  999.0,  999.0,  999.0,  999.0,  999.0,  999.0,  999.0,  999.0,  999.0,  999.0,  999.0,  999.0
2012/11/26 19:00,  999.0,  999.0,    0.2,    0.6,    0.5,    0.5,    0.6,    0.5,    1.9,    2.5,    2.5,    1.4,    2.9,   -0.1,   -0.2,   -0.0,    0.0,    0.1,   -0.1,    0.0,   -0.0,   -0.6,   -0.1,   -0.2,   -0.5,   -0.4,   -0.8,   -1.0,   -0.4,   -0.6,   -0.6,   -0.0,   -0.3,   -0.1,   -0.3,    0.1,   -0.1,   -0.1,   -0.0,   -0.3,   -0.2,   -0.3,   -0.2,   -0.0,   -0.0,   -0.1,    0.1,   -0.0,   -0.1,   -0.3,   -0.1,   -0.3,    0.4,    0.0,   -0.2,   -0.0,   -0.0,    0.1,    0.1,    0.1,    0.0,   -0.1,   -0.1,    0.0,    0.1,  999.0,   -0.1,   -0.2,   -0.2,  999.0,  999.0,  999.0,  999.0,  999.0,  999.0,  999.0,  999.0,  999.0,  999.0,  999.0
2012/11/26 19:10,  999.0,  999.0,    0.1,    0.1,    0.2,    0.1,    0.4,    0.2,    0.1,   -0.0,   -0.0,    0.0,    0.5,    0.2,    0.1,   -0.1,   -0.0,    0.0,    0.1,    0.0,   -0.1,    0.2,    0.1,   -0.0,   -0.1,   -0.0,   -0.3,   -0.0,    0.1,    0.0,    0.1,   -0.0,   -0.2,   -0.1,    0.2,    0.0,    0.0,   -0.0,    0.0,   -0.1,   -0.0,   -0.1,    0.1,    0.0,   -0.0,    0.2,    0.0,    0.1,    0.1,    0.0,   -0.2,   -0.1,    0.1,    0.1,   -0.2,   -0.2,   -0.0,   -0.1,   -0.1,   -0.2,   -0.1,    0.1,    0.1,   -0.0,   -0.2,   -0.1,   -0.0,   -0.0,    0.1,  999.0,  999.0,  999.0,  999.0,  999.0,  999.0,  999.0,  999.0,  999.0,  999.0,  999.0
2012/11/26 19:20,  999.0,  999.0,   -0.0,    0.0,    0.0,   -0.0,   -0.0,   -0.1,   -0.1,   -0.0,   -0.0,    0.1,   -0.1,    0.0,    0.1,   -0.1,   -0.0,    0.0,    0.0,   -0.1,  999.0,   -0.2,   -0.1,   -0.1,   -0.0,   -0.0,   -0.1,    0.1,   -0.1,   -0.1,   -0.1,    0.1,   -0.0,    0.0,   -0.2,   -0.1,    0.1,    0.0,    0.1,    0.0,   -0.0,    0.0,   -0.0,   -0.0,   -0.0,   -0.0,   -0.0,   -0.1,    0.1,   -0.1,   -0.2,    0.1,    0.0,   -0.0,    0.0,    0.1,    0.0,    0.1,   -0.0,    0.1,   -0.1,   -0.1,   -0.1,    0.0,    0.0,   -0.0,    0.2,   -0.2,   -0.2,  999.0,  999.0,  999.0,  999.0,  999.0,  999.0,  999.0,  999.0,  999.0,  999.0,  999.0
2012/11/26 19:30,  999.0,   -0.0,    0.1,    0.3,    0.4,    0.5,    0.5,    0.3,    0.3,    0.5,    0.4,    0.3,    0.5,    0.8,    0.1,    0.5,    0.1,   -0.0,    0.0,   -0.6,   -0.4,   -0.5,   -0.3,   -0.2,   -0.0,   -0.1,   -0.1,   -0.2,   -0.2,   -0.3,   -0.2,    0.2,    0.2,    0.0,   -0.3,    0.0,    0.3,   -0.0,   -0.0,    0.1,    0.2,   -0.2,   -0.1,    0.2,   -0.1,   -0.3,   -0.2,   -0.0,    0.4,   -0.0,    0.2,   -0.0,    0.1,   -0.0,    0.4,   -0.1,    0.0,    0.2,    0.0,    0.1,  999.0,    0.0,   -0.0,   -0.1,    0.1,  999.0,  999.0,  999.0,  999.0,  999.0,  999.0,    0.4,    0.2,  999.0,  999.0,  999.0,  999.0,  999.0,  999.0,  999.0
2012/11/26 19:40,  999.0,  999.0,    2.5,    2.2,    2.0,    2.4,    1.6,    1.2,    0.3,   -0.3,   -0.0,   -0.3,   -0.3,   -0.1,    3.0,    5.4,    7.0,    7.5,    6.6,    6.4,    1.5,    6.9,    4.0,    4.0,   -0.0,   -0.1,   -0.0,   -0.2,   -0.6,   -0.8,   -0.1,  999.0,  999.0,  999.0,   -0.1,    0.0,    0.2,    0.2,    0.0,    0.0,   -0.2,    0.0,   -0.1,   -0.0,   -0.0,   -0.1,   -0.4,   -0.6,   -0.8,   -0.9,   -0.9,   -0.3,   -0.1,   -0.1,    0.1,   -0.1,   -0.1,   -0.1,   -0.0,    0.0,    0.1,    0.0,    0.3,   -0.0,    0.1,  999.0,  999.0,  999.0,  999.0,  999.0,  999.0,   -0.2,    0.0,   -0.0,  999.0,  999.0,  999.0,  999.0,  999.0,  999.0
2012/11/26 19:50,  999.0,  999.0,    1.3,    0.9,    1.4,    1.0,    0.5,    0.4,   -0.0,   -0.0,    0.1,   -0.1,   -0.1,    0.1,   -0.4,   -0.4,   -0.4,   -0.3,   -0.4,   -0.2,   -0.2,   -0.1,   -0.1,    0.1,   -0.2,    0.1,    0.1,    0.1,   -0.5,   -0.6,    0.0,   -0.3,   -0.9,   -0.3,   -0.2,    0.0,    0.0,   -0.2,    0.1,   -0.1,   -0.3,   -0.0,    0.2,    0.1,   -0.2,   -0.3,   -0.2,   -0.0,   -0.3,   -0.5,    0.1,   -0.1,    0.1,   -0.3,   -0.1,   -0.1,   -0.0,    0.1,   -0.4,    0.2,    0.0,    0.0,   -0.1,   -0.2,  999.0,    0.0,   -0.2,    0.3,  999.0,  999.0,  999.0,  999.0,  999.0,  999.0,  999.0,  999.0,  999.0,  999.0,  999.0,  999.0
2012/11/26 20:00,  999.0,    0.4,    0.7,    1.2,    0.6,    0.2,    0.6,    0.8,    0.2,    0.1,    0.3,    0.2,    0.2,   -0.0,    0.3,   -0.1,   -0.4,    3.0,    8.1,    8.5,    0.2,    0.1,    0.1,   -0.0,   -0.1,   -0.1,   -0.0,   -0.2,    0.0,   -0.2,   -0.3,   -0.6,   -0.6,   -0.6,   -0.6,   -0.5,   -0.8,   -1.0,   -0.6,   -0.7,   -0.7,   -0.7,   -0.7,   -0.6,   -0.5,   -0.4,   -0.5,   -0.7,    0.2,   -0.0,    0.2,   -0.0,   -0.2,   -0.2,   -0.0,   -0.1,    0.0,   -0.1,   -0.1,    0.2,   -0.1,    0.2,    0.1,   -0.0,   -0.3,    0.0,  999.0,   -0.0,  999.0,  999.0,    0.4,    0.3,   -0.1,  999.0,  999.0,  999.0,  999.0,  999.0,  999.0,  999.0
2012/11/26 20:10,  999.0,    0.7,    0.6,    0.3,    0.2,    0.7,    1.5,    1.1,    0.2,    0.2,    1.4,    0.6,    0.2,   -0.3,   -0.0,    0.1,    0.0,    0.1,   -0.2,    8.3,    8.2,    8.4,   -0.1,   -0.1,   -0.0,    0.2,   -0.1,    0.1,   -0.0,   -0.1,   -0.1,   -0.2,   -0.3,   -0.3,  999.0,   -0.1,   -0.4,   -0.0,   -0.4,   -0.9,   -0.7,   -1.0,   -0.8,   -0.4,   -0.1,    0.3,    0.2,    0.1,    0.3,   -0.1,    0.2,   -0.2,    0.1,    0.0,    0.1,   -0.1,    0.0,   -0.2,    0.1,    0.2,    0.5,    0.2,    0.2,    0.0,    0.3,  999.0,  999.0,   -0.0,  999.0,  999.0,    0.4,    0.1,    0.2,   -0.1,  999.0,  999.0,  999.0,  999.0,  999.0,  999.0
2012/11/26 20:20,  999.0,  999.0,    1.3,    1.0,    0.2,    0.4,    0.4,    0.0,    1.0,    0.5,    0.8,    0.4,    8.5,  999.0,    8.1,    5.1,    4.7,    4.3,    3.9,    0.0,    4.9,    5.4,    6.4,    2.0,   -0.6,   -0.2,   -0.2,   -0.1,   -0.1,    0.1,   -0.7,   -1.0,   -1.0,   -1.3,  999.0,  999.0,   -1.5,  999.0,   -0.4,   -0.5,   -2.1,   -2.2,   -2.2,   -2.0,   -1.0,   -1.1,   -0.6,   -0.0,    0.2,   -0.1,   -0.3,    0.1,    0.0,   -0.0,   -0.1,    0.3,   -0.2,    0.0,   -0.0,   -0.1,    0.1,    0.2,    0.1,   -0.2,   -0.2,  999.0,  999.0,    0.2,   -0.2,  999.0,    0.1,   -0.1,  999.0,  999.0,  999.0,  999.0,  999.0,  999.0,  999.0,  999.0
2012/11/26 20:30,  999.0,  999.0,  999.0,  999.0,  999.0,  999.0,    5.6,  999.0,    5.4,    2.3,  999.0,   11.5,   14.4,   13.7,   11.0,   14.1,   13.8,  999.0,  999.0,  999.0,  999.0,  999.0,    5.2,    0.2,  999.0,   -0.9,   -1.5,   -1.4,   -0.2,  999.0,  999.0,   -0.6,  999.0,  999.0,  999.0,  999.0,  999.0,  999.0,  999.0,  999.0,  999.0,  999.0,  999.0,  999.0,  999.0,   -2.0,   -0.7,   -0.3,  999.0,   -0.2,   -0.0,   -0.1,    0.2,  999.0,   -0.5,  999.0,    0.2,    0.1,    0.1,    0.2,  999.0,    0.1,    0.1,  999.0,  999.0,  999.0,   -0.1,  999.0,  999.0,  999.0,  999.0,  999.0,  999.0,  999.0,  999.0,  999.0,  999.0,  999.0,  999.0,  999.0
2012/11/26 20:40,  999.0,   -0.2,   -0.9,    0.2,    0.7,    1.0,    0.4,   -0.1,    0.3,    5.0,    7.9,    8.3,    8.9,    9.0,   12.8,   11.3,   -0.1,  999.0,   11.4,   -0.2,    7.2,    3.0,    2.8,   -1.4,  999.0,   -0.1,    3.2,    3.5,    0.4,    0.1,   -0.3,   -0.4,  999.0,    0.1,   -0.0,    0.2,   -0.1,   -0.4,    0.9,   -0.6,   -1.3,   -1.2,   -0.1,   -0.9,   -1.4,   -1.2,    0.3,    0.3,    0.0,  999.0,  999.0,   -0.1,    0.2,    0.1,    0.1,    0.1,    0.1,    0.0,   -0.4,   -0.1,   -0.1,   -0.0,    0.1,   -0.2,  999.0,  999.0,  999.0,  999.0,  999.0,  999.0,  999.0,  999.0,  999.0,  999.0,  999.0,  999.0,  999.0,  999.0,  999.0,  999.0
2012/11/26 20:50,  999.0,    0.3,   -0.2,    1.3,    0.5,    3.0,    2.5,    5.5,    2.6,    4.1,   -2.5,    0.6,    0.4,   -3.5,  999.0,  999.0,  999.0,  999.0,  999.0,  999.0,  999.0,  999.0,  999.0,  999.0,  999.0,  999.0,    0.7,    3.3,    0.1,   -0.2,    0.0,    0.0,   -0.1,   -0.2,   -0.2,   -0.2,    0.0,   -0.2,   -0.3,   -0.7,   -0.9,   -0.3,    0.1,   -0.5,   -0.7,   -0.7,   -0.5,   -0.3,    0.3,   -0.1,   -0.3,   -0.0,    0.0,   -0.1,    0.1,    0.0,    0.1,    0.4,    0.1,   -0.0,   -0.0,   -0.1,   -0.1,    0.2,    0.3,  999.0,  999.0,  999.0,  999.0,  999.0,  999.0,  999.0,  999.0,  999.0,  999.0,  999.0,  999.0,  999.0,  999.0,  999.0
2012/11/26 21:00,  999.0,  999.0,  999.0,  999.0,  999.0,  999.0,  999.0,  999.0,  999.0,  999.0,   15.5,   16.2,   17.2,   16.9,   18.3,   12.0,  999.0,  999.0,  999.0,  999.0,  999.0,  999.0,  999.0,    0.1,  999.0,    0.1,  999.0,   -0.1,   -0.1,    0.2,  999.0,    0.0,  999.0,   -0.1,  999.0,    0.0,   -0.0,    0.1,  999.0,   -0.0,    0.1,   -0.3,   -0.0,    0.0,    0.5,    0.1,  999.0,   -0.4,    0.1,    0.3,  999.0,   -0.0,    0.0,  999.0,  999.0,  999.0,  999.0,  999.0,    0.4,  999.0,    0.2,   -0.0,  999.0,  999.0,  999.0,  999.0,  999.0,  999.0,  999.0,  999.0,  999.0,  999.0,  999.0,  999.0,  999.0,  999.0,  999.0,  999.0,  999.0,  999.0
2012/11/26 21:10,  999.0,   -0.3,   -0.8,    0.4,    1.6,    0.4,   -0.5,    0.4,  999.0,   -0.4,   -0.2,   -3.2,   -3.5,    2.3,    3.8,    4.0,    0.4,    0.4,    0.6,    5.0,    7.2,  999.0,  999.0,   -0.2,   -0.3,   -0.0,   -0.0,   -0.1,   -0.1,   -0.1,   -0.0,    0.0,    0.0,    0.0,   -0.1,    0.0,   -0.0,   -0.1,   -0.3,   -0.2,   -0.3,   -0.1,    0.1,   -0.3,   -0.1,    0.3,   -0.0,    0.1,    0.0,    0.0,    0.2,    0.2,    0.2,  999.0,   -0.3,    0.2,    0.0,    0.3,   -0.0,   -0.1,    0.4,    0.2,    0.0,    0.1,   -0.1,   -0.3,   -0.0,  999.0,  999.0,   -0.1,  999.0,   -0.2,  999.0,  999.0,  999.0,  999.0,  999.0,  999.0,  999.0,  999.0
2012/11/26 21:20,  999.0,   -0.2,   -0.7,    1.0,    1.1,   -2.3,   -0.4,   -0.1,    1.7,    3.1,    1.3,    3.8,    4.5,    4.0,    3.6,    2.3,    1.9,   -0.9,   -1.7,   -1.0,    0.1,    0.1,    0.2,    0.2,   -0.0,   -0.0,    0.1,   -0.1,   -0.0,   -0.0,    0.0,    0.0,    0.1,   -0.0,   -0.4,   -0.1,    0.0,   -0.2,   -0.3,   -0.3,    0.0,   -0.4,   -0.0,   -0.1,    0.2,   -0.1,   -0.0,    0.1,   -0.1,  999.0,   -0.1,  999.0,    0.3,   -0.1,   -0.2,   -0.0,    0.0,   -0.1,   -0.2,    0.1,   -0.3,   -0.2,   -0.2,   -0.1,  999.0,    0.0,    0.2,   -0.1,    0.5,  999.0,   -0.2,   -0.3,  999.0,  999.0,   -0.1,  999.0,  999.0,  999.0,  999.0,  999.0
2012/11/26 21:30,  999.0,  999.0,   -0.0,    0.3,  999.0,   -6.0,   -1.2,   -0.0,    0.4,    0.4,    0.3,    0.3,    1.1,   -4.8,    0.3,   -0.3,  999.0,  -11.8,  999.0,  999.0,  -10.7,  999.0,  999.0,   -9.8,  999.0,   -0.0,    0.0,    0.1,   -0.1,   -0.1,   -0.1,    0.1,    0.2,   -0.0,    0.2,    0.0,   -0.4,    0.1,  999.0,  999.0,   -0.1,  999.0,  999.0,   -0.2,   -0.0,    0.0,    0.1,    0.0,  999.0,    0.2,   -0.2,    0.5,   -0.0,    0.1,    0.1,   -0.3,    0.1,   -0.3,   -0.1,   -0.1,   -0.2,    0.1,   -0.2,  999.0,   -0.4,    0.1,   -0.0,   -0.0,  999.0,  999.0,    0.2,  999.0,  999.0,  999.0,    0.1,  999.0,  999.0,  999.0,  999.0,  999.0
2012/11/26 21:40,  999.0,  999.0,  999.0,    0.1,    0.0,    0.3,    0.2,   -1.0,   -1.0,   -0.4,    2.2,    1.5,   -4.7,   -0.6,  999.0,   -3.6,   -6.5,   -8.1,   -1.3,    2.5,    3.1,   -0.5,  999.0,   -2.8,  999.0,  999.0,  999.0,  999.0,  999.0,  999.0,  999.0,  999.0,  999.0,  999.0,  999.0,  999.0,  999.0,  999.0,  999.0,  999.0,  999.0,  999.0,  999.0,  999.0,  999.0,  999.0,  999.0,  999.0,  999.0,  999.0,  999.0,  999.0,  999.0,  999.0,  999.0,  999.0,  999.0,  999.0,  999.0,  999.0,  999.0,  999.0,  999.0,  999.0,  999.0,  999.0,  999.0,  999.0,  999.0,  999.0,  999.0,  999.0,  999.0,  999.0,  999.0,  999.0,  999.0,  999.0,  999.0,  999.0
2012/11/26 21:50,  999.0,  999.0,  999.0,  999.0,  999.0,  999.0,  999.0,  999.0,  999.0,  999.0,    4.3,    4.2,    6.1,    7.5,  999.0,  999.0,  999.0,  999.0,    2.8,    1.8,    1.9,    1.6,    0.8,  999.0,  999.0,  999.0,  999.0,  999.0,  999.0,   -0.3,    0.4,    0.1,    0.3,    0.0,   -0.0,   -0.1,   -0.0,   -0.8,   -0.7,   -0.1,   -0.1,   -0.3,   -0.2,    0.3,    0.0,   -0.0,    0.2,    0.0,   -0.2,   -0.2,    0.3,    0.2,   -0.1,   -0.2,   -0.1,  999.0,   -0.1,    0.0,   -0.3,   -0.1,    0.2,    0.1,  999.0,  999.0,  999.0,   -0.4,  999.0,    0.1,    0.4,  999.0,  999.0,  999.0,  999.0,  999.0,  999.0,  999.0,  999.0,  999.0,  999.0,  999.0
2012/11/26 22:00,  999.0,  999.0,    2.6,    1.1,   -4.4,   -0.4,   -1.2,  -27.6,  -29.4,  -13.7,  -13.0,    0.1,    4.1,   -1.2,    0.4,   -3.1,   -4.2,  -14.8,  999.0,  999.0,   -4.2,  999.0,  999.0,  999.0,  999.0,  999.0,    9.7,   10.9,  999.0,  999.0,  999.0,  999.0,  999.0,  999.0,  999.0,  999.0,   -0.1,    0.6,    4.5,   -0.0,    0.1,   -0.0,    0.0,   -0.2,   -0.0,   -0.1,   -0.1,   -0.0,    0.1,    0.0,   -0.4,    0.0,    0.1,    0.3,    0.2,   -0.2,    0.2,    0.1,   -0.2,    0.0,  999.0,   -0.2,  999.0,    0.0,  999.0,  999.0,  999.0,  999.0,    0.3,  999.0,    0.1,   -0.0,  999.0,  999.0,  999.0,  999.0,  999.0,  999.0,  999.0,  999.0
2012/11/26 22:10,  999.0,    2.8,    1.6,    2.5,    0.9,    2.2,    0.4,   -1.9,   -0.5,    0.0,    0.5,    1.5,    5.9,   -2.7,    1.0,   -2.7,   -2.4,   -1.0,   -5.1,   -7.2,  -10.7,   -8.2,   -7.6,  999.0,   -4.5,  999.0,  999.0,  999.0,  999.0,  999.0,   20.2,  999.0,  999.0,  999.0,  999.0,   16.2,  999.0,  999.0,  999.0,  999.0,   -0.1,   -0.1,    0.2,   -0.0,    0.1,    0.1,    0.1,    0.0,   -0.1,    0.3,    0.3,    0.0,    0.2,   -0.0,    0.3,    0.3,   -0.1,    0.3,   -0.1,   -0.1,  999.0,   -0.1,  999.0,  999.0,  999.0,  999.0,    0.5,  999.0,    0.1,  999.0,  999.0,    0.1,    0.3,  999.0,  999.0,  999.0,  999.0,  999.0,  999.0,  999.0
2012/11/26 22:20,  999.0,  999.0,  999.0,    5.6,    6.1,    3.6,    4.6,   -1.2,    2.2,    2.8,    3.3,    6.0,    4.0,  999.0,    0.9,    0.6,  999.0,    4.3,  999.0,   -1.6,  999.0,  999.0,    5.8,  999.0,  999.0,  999.0,  999.0,  999.0,  999.0,  999.0,  999.0,  999.0,  999.0,  999.0,  999.0,  999.0,  999.0,  999.0,  999.0,  999.0,  999.0,  999.0,  999.0,  999.0,  999.0,   -0.4,   -0.3,   -0.2,   -0.1,    0.0,   -0.1,  999.0,  999.0,  999.0,  999.0,  999.0,  999.0,  999.0,  999.0,  999.0,  999.0,    0.0,  999.0,  999.0,  999.0,  999.0,  999.0,    0.2,  999.0,  999.0,  999.0,  999.0,  999.0,    0.4,    0.1,  999.0,  999.0,  999.0,  999.0,  999.0
2012/11/26 22:30,  999.0,  999.0,  999.0,  999.0,  999.0,  999.0,  999.0,  999.0,    8.0,   10.6,   -5.4,  -18.1,  999.0,  999.0,   13.1,  999.0,  999.0,  999.0,  999.0,  999.0,  999.0,  999.0,  999.0,  999.0,  999.0,  999.0,  999.0,   -1.0,   -0.5,   -0.3,   -0.2,   -0.4,   -0.0,    0.1,   -0.2,    0.2,   -0.0,   -0.1,   -0.3,   -0.1,    0.2,   -0.1,   -0.3,   -0.2,    0.1,   -0.1,   -0.1,   -0.1,   -0.2,    0.0,    0.1,    0.1,    0.4,    0.2,   -0.0,   -0.0,    0.0,    0.1,    0.3,   -0.4,    0.1,   -0.3,    0.1,    0.2,  999.0,   -0.2,    0.2,   -0.2,   -0.3,  999.0,  999.0,   -0.4,    0.0,   -0.0,  999.0,  999.0,  999.0,  999.0,  999.0,  999.0
2012/11/26 22:40,  999.0,  999.0,  999.0,   11.1,    7.2,   10.0,    5.8,    2.5,    5.2,    5.4,    6.9,    7.6,    7.7,    2.8,  999.0,  999.0,  999.0,  999.0,  999.0,  999.0,   10.3,  999.0,  999.0,  999.0,  999.0,  999.0,  999.0,  999.0,  999.0,  999.0,  999.0,  999.0,   -0.2,   -0.2,   -0.4,  999.0,   -0.8,   -0.2,   -0.3,   -0.4,   -0.5,   -0.3,    0.0,   -0.2,    0.1,  999.0,    0.1,   -0.0,   -0.0,  999.0,    0.1,    0.2,   -0.0,    0.1,    0.2,    0.0,   -0.1,    0.2,   -0.3,   -0.0,    0.4,    0.3,    0.2,   -0.2,   -0.2,    0.1,   -0.3,  999.0,  999.0,  999.0,  999.0,   -0.1,   -0.1,   -0.1,  999.0,  999.0,  999.0,  999.0,  999.0,  999.0
2012/11/26 22:50,  999.0,   -1.6,    1.4,    1.1,    2.3,    0.5,    0.4,    1.2,    3.4,    4.6,    3.4,   -0.7,    7.7,   12.7,   14.3,   12.0,   11.9,    6.3,    5.6,    2.9,  999.0,    7.0,    7.1,   13.5,    9.9,   11.5,   -1.8,   -4.5,   -1.0,    4.3,    7.4,   11.8,   12.5,    6.9,    8.7,   -0.1,   -0.1,   -0.5,    1.4,    3.0,   -0.2,    0.0,   -0.0,   -0.2,   -0.3,    0.1,   -0.0,   -0.1,   -0.0,    0.2,   -0.3,    0.2,   -0.3,   -0.0,   -0.2,   -0.1,   -0.2,   -0.1,   -0.3,   -0.1,   -0.1,   -0.0,   -0.5,    0.1,   -0.0,    0.1,    0.2,   -0.0,    0.2,  999.0,   -0.1,  999.0,   -0.2,   -0.2,   -0.1,  999.0,  999.0,  999.0,  999.0,  999.0
2012/11/26 23:00,  999.0,  999.0,  999.0,  999.0,  999.0,    6.5,    8.0,    9.0,    6.9,    5.6,    5.5,    7.0,   11.3,   15.2,   11.8,   14.6,   16.7,   13.8,   11.7,   12.3,   14.1,   17.7,   22.0,   22.7,  999.0,   18.7,   13.5,  999.0,  999.0,   13.5,   14.7,  999.0,    8.2,    6.2,  999.0,  999.0,    0.1,  999.0,   -1.2,   -1.2,   -0.8,    0.3,   -0.2,    0.1,   -0.0,    0.0,    0.0,    0.0,    0.0,   -0.0,    0.0,   -0.2,   -0.2,    0.0,    0.0,   -0.0,   -0.1,   -0.1,    0.1,   -0.1,   -0.2,   -0.5,   -0.3,   -0.1,   -0.1,    0.3,    0.1,   -0.3,   -0.2,   -0.0,   -0.1,   -0.3,    0.2,    0.0,   -0.2,  999.0,  999.0,  999.0,  999.0,  999.0
2012/11/26 23:10,  999.0,  999.0,  999.0,   -4.2,  999.0,    3.4,   -2.2,    0.9,    4.6,    5.3,    5.8,    4.3,    4.3,    4.1,    2.0,    4.6,    4.8,    7.2,   11.4,  999.0,  999.0,    1.5,  999.0,  999.0,    9.7,    7.9,    7.5,  999.0,  999.0,   12.3,   12.8,  999.0,   16.3,   16.4,   16.3,   14.9,  999.0,  999.0,   -1.0,  999.0,   -0.6,   -0.0,   -0.1,   -0.1,    0.2,    0.1,    0.1,    0.0,   -0.1,   -0.1,    0.2,   -0.2,    0.0,   -0.3,    0.0,   -0.1,   -0.2,   -0.1,    0.0,   -0.0,    0.2,   -0.1,    0.2,   -0.2,    0.1,   -0.0,    0.0,    0.3,    0.1,    0.2,    0.1,    0.1,   -0.0,    0.1,   -0.0,  999.0,  999.0,  999.0,  999.0,  999.0
2012/11/26 23:20,  999.0,  999.0,  999.0,  999.0,   -0.7,   -0.3,    3.1,    4.6,    7.4,    7.4,   10.9,    9.2,    8.8,   10.8,   10.6,  999.0,  999.0,  999.0,  999.0,  999.0,  999.0,  999.0,  999.0,  999.0,  999.0,  999.0,  999.0,  999.0,  999.0,    6.2,  999.0,  999.0,  999.0,  999.0,   -0.0,   -0.2,  999.0,  999.0,  999.0,   -0.7,   -0.4,   -0.3,   -0.4,    0.0,   -0.1,   -0.1,    0.6,    0.1,   -0.4,   -0.5,    0.1,   -0.0,   -0.0,   -0.1,   -0.1,   -0.1,   -0.2,   -0.0,    0.1,    0.1,   -0.1,   -0.1,    0.1,    0.0,   -0.1,   -0.2,    0.3,    0.1,   -0.0,    0.1,   -0.2,   -0.1,    0.1,    0.0,   -0.1,  999.0,  999.0,  999.0,  999.0,  999.0
2012/11/26 23:30,  999.0,  999.0,  999.0,  999.0,  999.0,  999.0,  999.0,  999.0,  999.0,  999.0,  999.0,  999.0,   -2.9,   -0.4,  999.0,  999.0,  999.0,  999.0,  999.0,  999.0,  999.0,  999.0,  999.0,  999.0,  999.0,  999.0,  999.0,  999.0,   -0.5,  999.0,    0.1,   -0.1,  999.0,  999.0,  999.0,   -0.8,  999.0,  999.0,    5.9,    3.1,   -0.6,  999.0,  999.0,    0.4,    0.1,    0.1,    0.2,    0.1,    0.2,    0.1,   -0.0,    0.5,    0.0,   -0.1,    0.2,   -0.1,    0.1,   -0.0,   -0.1,    0.2,   -0.1,   -0.2,   -0.4,    0.0,    0.5,   -0.1,    0.4,    0.1,    0.0,  999.0,    0.1,    0.1,   -0.0,    0.1,   -0.0,  999.0,  999.0,  999.0,  999.0,  999.0
2012/11/26 23:40,  999.0,  999.0,    0.2,    0.4,    0.5,    0.1,   -0.2,   -0.6,   -0.8,   -0.6,   -2.2,   -1.0,   -1.4,   -1.1,  999.0,  999.0,  999.0,    1.3,  999.0,  999.0,  999.0,  999.0,  999.0,  999.0,  999.0,  999.0,  999.0,  999.0,  999.0,  999.0,  999.0,  999.0,  999.0,  999.0,  999.0,  999.0,  999.0,  999.0,  999.0,  999.0,  999.0,  999.0,  999.0,  999.0,  999.0,  999.0,    0.2,    0.2,  999.0,  999.0,    0.0,  999.0,  999.0,  999.0,    0.1,   -0.4,    0.1,    0.0,   -0.3,   -0.0,    0.1,    0.1,   -0.2,   -0.1,    0.1,    0.0,   -0.0,    0.0,    0.0,    0.1,   -0.0,   -0.0,  999.0,    0.1,    0.0,  999.0,  999.0,  999.0,  999.0,  999.0
2012/11/26 23:50,  999.0,  999.0,    1.2,    3.8,    5.4,  999.0,  999.0,  999.0,    1.3,   -4.0,   -6.6,   -3.5,    0.4,   -3.2,    0.1,  999.0,  999.0,    9.4,    7.5,    9.3,   15.6,  999.0,  999.0,  999.0,   14.8,   11.7,  999.0,  999.0,  999.0,  999.0,  999.0,  999.0,   12.4,  999.0,  999.0,  999.0,  999.0,  999.0,  999.0,  999.0,  999.0,  999.0,  999.0,  999.0,  999.0,  999.0,  999.0,  999.0,  999.0,  999.0,  999.0,   -0.1,   -0.4,   -0.2,   -0.1,    0.4,   -0.2,    0.1,    0.3,   -0.1,   -0.4,   -0.2,   -0.1,    0.2,    0.1,   -0.2,   -0.2,  999.0,   -0.4,  999.0,    0.2,   -0.1,  999.0,   -0.2,  999.0,  999.0,  999.0,  999.0,  999.0,  999.0
